DL9BGG-13 Weather Reports


time (UTC)temp
F
wind
direction
speed
knots
gust
knots
rain 1hr
in
rain 24hr
in
rain mn
in
humidity
%
barometer
mb
20260903062733 64 180 7.0 0.0 0.00 0.00 0.00 88 1056.8
20260903062629 64 225 7.8 0.0 0.00 0.00 0.00 88 1056.8
20260903062515 64 202 1.7 0.0 0.00 0.00 0.00 88 1056.8
20260903062353 64 225 6.1 0.0 0.00 0.00 0.00 88 1056.8
20260903062242 64 225 5.2 0.0 0.00 0.00 0.00 88 1056.8
20260903062135 64 225 11.3 0.0 0.00 0.00 0.00 88 1056.8
20260903061958 64 225 9.6 0.0 0.00 0.00 0.00 88 1056.8
20260903061837 64 225 2.6 0.0 0.00 0.00 0.00 88 1056.8
20260903061710 64 270 5.2 0.0 0.00 0.00 0.00 88 1056.8
20260903061604 64 202 9.6 0.0 0.00 0.00 0.00 88 1056.8
20260903061450 64 180 6.1 0.0 0.00 0.00 0.00 88 1056.8
20260903061338 64 225 6.1 0.0 0.00 0.00 0.00 89 1056.8
20260903061234 63 225 6.1 0.0 0.00 0.00 0.00 89 1056.9
20260903061128 63 180 15.6 0.0 0.00 0.00 0.00 89 1056.8
20260903061024 63 270 3.5 0.0 0.00 0.00 0.00 89 1056.8
20260903060916 63 247 6.1 0.0 0.00 0.00 0.00 89 1056.8
20260903060806 63 180 7.0 0.0 0.00 0.00 0.00 89 1057.0
20260903060658 63 247 5.2 0.0 0.00 0.00 0.00 89 1056.9
20260903060537 63 225 9.6 0.0 0.00 0.00 0.00 89 1056.8
20260903060415 63 180 7.8 0.0 0.00 0.00 0.00 89 1056.9
20260903060239 63 225 10.4 0.0 0.00 0.00 0.00 89 1056.9
20260903060135 63 225 7.0 0.0 0.00 0.00 0.00 89 1056.9
20260903060028 63 202 6.1 0.0 0.00 0.00 0.00 89 1056.9
20260903055922 63 180 7.0 0.0 0.00 0.00 0.00 89 1057.0
20260903055817 63 157 7.0 0.0 0.00 0.00 0.00 89 1057.1
20260903055711 63 180 4.3 0.0 0.00 0.00 0.00 89 1057.1
20260903055606 63 180 11.3 0.0 0.00 0.00 0.00 89 1057.0
20260903055500 63 202 7.0 0.0 0.00 0.00 0.00 89 1057.1
20260903055354 63 270 2.6 0.0 0.00 0.00 0.00 89 1057.1
20260903055248 63 180 3.5 0.0 0.00 0.00 0.00 89 1057.2
20260903055143 63 247 7.8 0.0 0.00 0.00 0.00 89 1057.2
20260903055029 63 202 2.6 0.0 0.00 0.00 0.00 89 1057.1
20260903054907 63 180 7.8 0.0 0.00 0.00 0.00 89 1057.2
20260903054752 63 180 7.0 0.0 0.00 0.00 0.00 89 1057.2
20260903054623 63 180 3.5 0.0 0.00 0.00 0.00 89 1057.3
20260903054509 63 225 3.5 0.0 0.00 0.00 0.00 89 1057.1
20260903054358 63 202 5.2 0.0 0.00 0.00 0.00 89 1057.2
20260903054250 63 292 2.6 0.0 0.00 0.00 0.00 89 1057.2
20260903054131 63 225 3.5 0.0 0.00 0.00 0.00 89 1057.1
20260903054016 63 180 5.2 0.0 0.00 0.00 0.00 89 1057.3
20260903053733 63 225 11.3 0.0 0.00 0.00 0.00 89 1057.1
20260903053531 63 270 3.5 0.0 0.00 0.00 0.00 89 1057.2
20260903053354 63 247 7.0 0.0 0.00 0.00 0.00 89 1057.3
20260903053224 63 180 10.4 0.0 0.00 0.00 0.00 90 1057.3
20260903053102 63 225 3.5 0.0 0.00 0.00 0.00 90 1057.2
20260903052924 63 202 3.5 0.0 0.00 0.00 0.00 90 1057.3
20260903052755 63 180 10.4 0.0 0.00 0.00 0.00 90 1057.3
20260903052636 63 202 6.1 0.0 0.00 0.00 0.00 90 1057.3
20260903052527 63 247 7.8 0.0 0.00 0.00 0.00 90 1057.2
20260903052406 63 180 4.3 0.0 0.00 0.00 0.00 90 1057.3
20260903052255 62 180 5.2 0.0 0.00 0.00 0.00 90 1057.3
20260903052148 62 225 99.1 0.0 0.00 0.00 0.00 90 1057.3
20260903051518 62 225 99.1 0.0 0.00 0.00 0.00 91 1057.2
20260903050848 62 225 7.0 0.0 0.00 0.00 0.00 91 1057.4
20260903050412 62 225 5.2 0.0 0.00 0.00 0.00 91 1057.1
20260903050242 62 225 4.3 0.0 0.00 0.00 0.00 91 1057.2
20260903050121 62 247 5.2 0.0 0.00 0.00 0.00 91 1057.2
20260903045926 62 225 2.6 0.0 0.00 0.00 0.00 91 1057.1
20260903045757 62 202 6.1 0.0 0.00 0.00 0.00 91 1057.2
20260903045651 62 202 3.5 0.0 0.00 0.00 0.00 91 1057.2
20260903045539 62 225 4.3 0.0 0.00 0.00 0.00 91 1057.3
20260903045425 62 202 8.7 0.0 0.00 0.00 0.00 91 1057.3
20260903045313 62 202 7.0 0.0 0.00 0.00 0.00 91 1057.3
20260903045209 62 180 5.2 0.0 0.00 0.00 0.00 91 1057.3
20260903045100 62 180 12.2 0.0 0.00 0.00 0.00 91 1057.4
20260903044946 62 202 0.0 0.0 0.00 0.00 0.00 91 1057.4
20260903044839 62 247 5.2 0.0 0.00 0.00 0.00 91 1057.3
20260903044728 62 202 6.1 0.0 0.00 0.00 0.00 91 1057.2
20260903044619 62 157 3.5 0.0 0.00 0.00 0.00 91 1057.2
20260903044459 62 202 6.1 0.0 0.00 0.00 0.00 91 1057.1
20260903044353 62 247 7.8 0.0 0.00 0.00 0.00 91 1057.3
20260903044245 62 202 5.2 0.0 0.00 0.00 0.00 91 1057.2
20260903044130 62 180 2.6 0.0 0.00 0.00 0.00 91 1057.2
20260903044000 62 180 3.5 0.0 0.00 0.00 0.00 91 1057.4
20260903043846 62 225 0.0 0.0 0.00 0.00 0.00 91 1057.3
20260903043739 62 225 5.2 0.0 0.00 0.00 0.00 91 1057.4
20260903043609 62 180 5.2 0.0 0.00 0.00 0.00 91 1057.4
20260903043455 62 180 5.2 0.0 0.00 0.00 0.00 91 1057.3
20260903043347 62 157 3.5 0.0 0.00 0.00 0.00 92 1057.3
20260903043227 62 202 5.2 0.0 0.00 0.00 0.00 91 1057.3
20260903043113 62 202 4.3 0.0 0.00 0.00 0.00 92 1057.4
20260903042959 62 202 12.2 0.0 0.00 0.00 0.00 91 1057.4
20260903042854 62 180 4.3 0.0 0.00 0.00 0.00 91 1057.4
20260903042746 62 202 9.6 0.0 0.00 0.00 0.00 91 1057.3
20260903042616 62 202 6.1 0.0 0.00 0.00 0.00 91 1057.4
20260903042502 62 180 6.1 0.0 0.00 0.00 0.00 91 1057.4
20260903042355 62 202 6.1 0.0 0.00 0.00 0.00 91 1057.5
20260903042235 62 225 7.0 0.0 0.00 0.00 0.00 91 1057.5
20260903042119 61 225 7.0 0.0 0.00 0.00 0.00 91 1057.6
20260903042005 61 202 7.0 0.0 0.00 0.00 0.00 91 1057.6
20260903041859 62 202 7.8 0.0 0.00 0.00 0.00 91 1057.6
20260903041744 61 270 5.2 0.0 0.00 0.00 0.00 91 1057.6
20260903041621 62 157 2.6 0.0 0.00 0.00 0.00 91 1057.6
20260903041508 62 180 12.2 0.0 0.00 0.00 0.00 91 1057.6
20260903041400 62 180 10.4 0.0 0.00 0.00 0.00 91 1057.6
20260903041249 62 157 7.8 0.0 0.00 0.00 0.00 91 1057.7
20260903041143 62 180 11.3 0.0 0.00 0.00 0.00 91 1057.6
20260903041026 62 202 7.8 0.0 0.00 0.00 0.00 91 1057.7
20260903040905 62 202 4.3 0.0 0.00 0.00 0.00 91 1057.7
20260903040758 62 247 4.3 0.0 0.00 0.00 0.00 91 1057.6
20260903040628 61 247 5.2 0.0 0.00 0.00 0.00 91 1057.6
20260903040513 61 247 1.7 0.0 0.00 0.00 0.00 91 1057.7
20260903040359 61 157 6.1 0.0 0.00 0.00 0.00 91 1057.7
20260903040237 62 202 5.2 0.0 0.00 0.00 0.00 91 1057.7
20260903040123 62 180 2.6 0.0 0.00 0.00 0.00 91 1057.7
20260903040017 62 135 9.6 0.0 0.00 0.00 0.00 91 1057.7
20260903035911 62 247 4.3 0.0 0.00 0.00 0.00 91 1057.7
20260903035805 62 225 6.1 0.0 0.00 0.00 0.00 91 1057.8
20260903035658 62 180 12.2 0.0 0.00 0.00 0.00 91 1057.7
20260903035537 62 157 3.5 0.0 0.00 0.00 0.00 91 1057.7
20260903035423 62 180 5.2 0.0 0.00 0.00 0.00 91 1057.8
20260903035316 62 202 12.2 0.0 0.00 0.00 0.00 91 1057.8
20260903035202 62 180 6.1 0.0 0.00 0.00 0.00 91 1057.8
20260903035056 62 247 5.2 0.0 0.00 0.00 0.00 91 1057.8
20260903034941 62 225 3.5 0.0 0.00 0.00 0.00 91 1057.8
20260903034819 62 247 6.1 0.0 0.00 0.00 0.00 90 1057.8
20260903034705 62 180 4.3 0.0 0.00 0.00 0.00 90 1057.9
20260903034546 62 247 3.5 0.0 0.00 0.00 0.00 90 1057.9
20260903034439 62 225 5.2 0.0 0.00 0.00 0.00 90 1057.9
20260903034331 62 225 10.4 0.0 0.00 0.00 0.00 90 1057.9
20260903034210 62 157 12.2 0.0 0.00 0.00 0.00 90 1057.9
20260903034051 62 180 10.4 0.0 0.00 0.00 0.00 90 1058.0
20260903033936 62 202 5.2 0.0 0.00 0.00 0.00 89 1058.0
20260903033822 62 180 7.0 0.0 0.00 0.00 0.00 89 1058.1
20260903033712 62 225 7.0 0.0 0.00 0.00 0.00 89 1058.1
20260903033607 62 180 9.6 0.0 0.00 0.00 0.00 89 1058.1
20260903033452 62 202 5.2 0.0 0.00 0.00 0.00 89 1058.0
20260903033338 62 180 7.0 0.0 0.00 0.00 0.00 89 1058.1
20260903033217 62 225 7.0 0.0 0.00 0.00 0.00 89 1058.0
20260903033056 62 157 6.1 0.0 0.00 0.00 0.00 89 1058.0
20260903032943 62 180 7.8 0.0 0.00 0.00 0.00 89 1058.1
20260903032821 62 225 13.0 0.0 0.00 0.00 0.00 88 1058.2
20260903032708 62 180 3.5 0.0 0.00 0.00 0.00 88 1058.2
20260903032555 62 202 1.7 0.0 0.00 0.00 0.00 88 1058.3
20260903032442 62 270 3.5 0.0 0.00 0.00 0.00 88 1058.2
20260903032329 62 202 7.0 0.0 0.00 0.00 0.00 88 1058.2
20260903032216 62 225 9.6 0.0 0.00 0.00 0.00 88 1058.3
20260903032103 62 180 8.7 0.0 0.00 0.00 0.00 88 1058.3
20260903031958 62 202 8.7 0.0 0.00 0.00 0.00 88 1058.2
20260903031839 62 202 5.2 0.0 0.00 0.00 0.00 88 1058.3
20260903031732 62 180 5.2 0.0 0.00 0.00 0.00 88 1058.2
20260903031620 62 247 7.0 0.0 0.00 0.00 0.00 87 1058.3
20260903031513 62 225 2.6 0.0 0.00 0.00 0.00 87 1058.4
20260903031352 62 225 7.8 0.0 0.00 0.00 0.00 87 1058.2
20260903031241 62 180 10.4 0.0 0.00 0.00 0.00 87 1058.3
20260903031133 62 157 6.1 0.0 0.00 0.00 0.00 87 1058.3
20260903031024 62 180 3.5 0.0 0.00 0.00 0.00 87 1058.5
20260903030916 62 202 11.3 0.0 0.00 0.00 0.00 87 1058.3
20260903030802 62 225 11.3 0.0 0.00 0.00 0.00 87 1058.3
20260903030650 62 180 9.6 0.0 0.00 0.00 0.00 87 1058.3
20260903030536 62 225 5.2 0.0 0.00 0.00 0.00 87 1058.5
20260903030415 62 202 7.0 0.0 0.00 0.00 0.00 87 1058.3
20260903030304 62 157 5.2 0.0 0.00 0.00 0.00 87 1058.3
20260903030157 62 180 5.2 0.0 0.00 0.00 0.00 87 1058.2
20260903030044 62 157 1.7 0.0 0.00 0.00 0.00 87 1058.3
20260903025922 62 202 5.2 0.0 0.00 0.00 0.00 87 1058.3
20260903025811 62 225 4.3 0.0 0.00 0.00 0.00 87 1058.4
20260903025707 62 157 4.3 0.0 0.00 0.00 0.00 87 1058.4
20260903025600 62 202 14.8 0.0 0.00 0.00 0.00 87 1058.5
20260903025438 62 202 5.2 0.0 0.00 0.00 0.00 87 1058.5
20260903025325 62 157 3.5 0.0 0.00 0.00 0.00 87 1058.5
20260903025214 62 202 6.1 0.0 0.00 0.00 0.00 87 1058.6
20260903025107 62 225 6.1 0.0 0.00 0.00 0.00 87 1058.6
20260903024954 62 180 5.2 0.0 0.00 0.00 0.00 87 1058.6
20260903024832 62 180 5.2 0.0 0.00 0.00 0.00 87 1058.6
20260903024721 62 157 7.8 0.0 0.00 0.00 0.00 87 1058.7
20260903024616 62 292 0.0 0.0 0.00 0.00 0.00 87 1058.7
20260903024510 62 202 4.3 0.0 0.00 0.00 0.00 87 1058.6
20260903024359 62 225 3.5 0.0 0.00 0.00 0.00 87 1058.7
20260903024253 62 247 4.3 0.0 0.00 0.00 0.00 87 1058.7
20260903024146 62 202 8.7 0.0 0.00 0.00 0.00 87 1058.6
20260903024034 62 180 8.7 0.0 0.00 0.00 0.00 87 1058.6
20260903023919 62 180 11.3 0.0 0.00 0.00 0.00 87 1058.7
20260903023800 62 202 3.5 0.0 0.00 0.00 0.00 87 1058.7
20260903023646 62 202 11.3 0.0 0.00 0.00 0.00 87 1058.7
20260903023533 62 225 6.1 0.0 0.00 0.00 0.00 87 1058.7
20260903023419 62 247 2.6 0.0 0.00 0.00 0.00 87 1058.7
20260903023258 62 180 11.3 0.0 0.00 0.00 0.00 87 1058.7
20260903023137 62 180 6.1 0.0 0.00 0.00 0.00 87 1058.8
20260903023015 62 180 5.2 0.0 0.00 0.00 0.00 87 1058.9
20260903022903 62 180 3.5 0.0 0.00 0.00 0.00 87 1058.9
20260903022758 62 247 5.2 0.0 0.00 0.00 0.00 87 1058.9
20260903022645 62 202 7.8 0.0 0.00 0.00 0.00 87 1059.0
20260903022541 62 225 8.7 0.0 0.00 0.00 0.00 87 1058.9
20260903022426 62 180 4.3 0.0 0.00 0.00 0.00 87 1059.0
20260903022316 62 135 4.3 0.0 0.00 0.00 0.00 87 1058.9
20260903022208 62 202 9.6 0.0 0.00 0.00 0.00 87 1059.0
20260903022057 62 202 6.1 0.0 0.00 0.00 0.00 87 1059.1
20260903021951 62 202 3.5 0.0 0.00 0.00 0.00 87 1059.0
20260903021846 62 135 10.4 0.0 0.00 0.00 0.00 87 1059.0
20260903021740 62 247 3.5 0.0 0.00 0.00 0.00 87 1059.0
20260903021626 62 180 0.0 0.0 0.00 0.00 0.00 87 1059.0
20260903021513 62 225 6.1 0.0 0.00 0.00 0.00 87 1059.0
20260903021403 62 202 5.2 0.0 0.00 0.00 0.00 87 1059.0
20260903021256 62 180 0.9 0.0 0.00 0.00 0.00 87 1058.9
20260903021143 62 202 0.0 0.0 0.00 0.00 0.00 87 1058.9
20260903021039 62 225 10.4 0.0 0.00 0.00 0.00 87 1059.0
20260903020932 62 225 4.3 0.0 0.00 0.00 0.00 87 1059.0
20260903020807 62 225 8.7 0.0 0.00 0.00 0.00 87 1059.0
20260903020658 62 225 5.2 0.0 0.00 0.00 0.00 87 1059.1
20260903020546 62 157 2.6 0.0 0.00 0.00 0.00 87 1059.1
20260903020441 62 202 10.4 0.0 0.00 0.00 0.00 87 1059.1
20260903020319 62 225 5.2 0.0 0.00 0.00 0.00 87 1059.1
20260903020157 62 202 5.2 0.0 0.00 0.00 0.00 87 1059.1
20260903020039 62 225 1.7 0.0 0.00 0.00 0.00 87 1059.1
20260903015934 62 202 7.0 0.0 0.00 0.00 0.00 87 1059.1
20260903015828 62 157 8.7 0.0 0.00 0.00 0.00 86 1059.1
20260903015721 62 157 10.4 0.0 0.00 0.00 0.00 86 1059.1
20260903015609 62 225 3.5 0.0 0.00 0.00 0.00 86 1059.1
20260903015455 62 247 3.5 0.0 0.00 0.00 0.00 86 1059.1
20260903015337 62 202 10.4 0.0 0.00 0.00 0.00 86 1059.1
20260903015221 62 202 5.2 0.0 0.00 0.00 0.00 86 1059.1
20260903015108 62 157 5.2 0.0 0.00 0.00 0.00 86 1059.2
20260903015003 62 202 4.3 0.0 0.00 0.00 0.00 85 1059.2
20260903014858 63 225 3.5 0.0 0.00 0.00 0.00 85 1059.2
20260903014752 63 225 3.5 0.0 0.00 0.00 0.00 85 1059.2
20260903014646 63 202 7.0 0.0 0.00 0.00 0.00 85 1059.3
20260903014540 63 157 5.2 0.0 0.00 0.00 0.00 85 1059.3
20260903014434 63 202 9.6 0.0 0.00 0.00 0.00 85 1059.3
20260903014321 63 202 9.6 0.0 0.00 0.00 0.00 85 1059.3
20260903014213 63 180 10.4 0.0 0.00 0.00 0.00 85 1059.3
20260903014059 63 135 8.7 0.0 0.00 0.00 0.00 85 1059.3
20260903013945 63 225 5.2 0.0 0.00 0.00 0.00 85 1059.3
20260903013831 63 202 3.5 0.0 0.00 0.00 0.00 85 1059.3
20260903013725 63 225 6.1 0.0 0.00 0.00 0.00 85 1059.5
20260903013619 63 180 6.1 0.0 0.00 0.00 0.00 85 1059.3
20260903013513 63 270 0.0 0.0 0.00 0.00 0.00 85 1059.5
20260903013407 63 202 5.2 0.0 0.00 0.00 0.00 85 1059.4
20260903013302 63 180 7.0 0.0 0.00 0.00 0.00 85 1059.5
20260903013155 63 247 6.1 0.0 0.00 0.00 0.00 85 1059.5
20260903013050 63 202 4.3 0.0 0.00 0.00 0.00 86 1059.5
20260903012944 63 135 0.0 0.0 0.00 0.00 0.00 86 1059.5
20260903012825 63 270 4.3 0.0 0.00 0.00 0.00 86 1059.5
20260903012720 63 180 0.0 0.0 0.00 0.00 0.00 86 1059.5
20260903012615 63 247 9.6 0.0 0.00 0.00 0.00 86 1059.6
20260903012508 63 247 3.5 0.0 0.00 0.00 0.00 86 1059.5
20260903012347 63 247 5.2 0.0 0.00 0.00 0.00 86 1059.6
20260903012242 63 180 11.3 0.0 0.00 0.00 0.00 86 1059.6
20260903012120 63 225 3.5 0.0 0.00 0.00 0.00 86 1059.5
20260903011952 63 157 4.3 0.0 0.00 0.00 0.00 86 1059.5
20260903011847 63 247 1.7 0.0 0.00 0.00 0.00 86 1059.6
20260903011735 63 202 4.3 0.0 0.00 0.00 0.00 86 1059.6
20260903011620 63 225 8.7 0.0 0.00 0.00 0.00 86 1059.6
20260903011507 63 157 5.2 0.0 0.00 0.00 0.00 86 1059.6
20260903011337 63 157 1.7 0.0 0.00 0.00 0.00 86 1059.7
20260903011218 63 202 5.2 0.0 0.00 0.00 0.00 86 1059.7
20260903011112 63 202 8.7 0.0 0.00 0.00 0.00 86 1059.7
20260903011000 63 225 1.7 0.0 0.00 0.00 0.00 86 1059.7
20260903010854 63 180 5.2 0.0 0.00 0.00 0.00 86 1059.8
20260903010741 63 202 2.6 0.0 0.00 0.00 0.00 86 1059.8
20260903010636 63 202 0.0 0.0 0.00 0.00 0.00 86 1059.8
20260903010523 63 202 9.6 0.0 0.00 0.00 0.00 85 1059.8
20260903010416 63 202 5.2 0.0 0.00 0.00 0.00 86 1059.9
20260903010301 63 180 0.0 0.0 0.00 0.00 0.00 86 1059.9
20260903010002 63 180 2.6 0.0 0.00 0.00 0.00 86 1059.9
20260903005855 63 180 6.1 0.0 0.00 0.00 0.00 86 1059.9
20260903005741 63 202 7.8 0.0 0.00 0.00 0.00 86 1059.9
20260903005634 63 225 5.2 0.0 0.00 0.00 0.00 86 1060.0
20260903005529 63 202 6.1 0.0 0.00 0.00 0.00 86 1060.0
20260903005421 63 225 2.6 0.0 0.00 0.00 0.00 85 1060.0
20260903005302 63 225 5.2 0.0 0.00 0.00 0.00 85 1060.0
20260903005154 63 202 7.0 0.0 0.00 0.00 0.00 85 1060.0
20260903005039 63 247 9.6 0.0 0.00 0.00 0.00 85 1060.0
20260903004925 63 157 8.7 0.0 0.00 0.00 0.00 85 1060.0
20260903004819 63 180 8.7 0.0 0.00 0.00 0.00 85 1060.1
20260903004705 63 180 4.3 0.0 0.00 0.00 0.00 85 1060.0
20260903004543 63 202 6.1 0.0 0.00 0.00 0.00 85 1060.1
20260903004429 63 135 2.6 0.0 0.00 0.00 0.00 85 1060.3
20260903004322 63 202 6.1 0.0 0.00 0.00 0.00 85 1060.2
20260903004217 63 202 7.8 0.0 0.00 0.00 0.00 85 1060.3
20260903004111 63 247 7.8 0.0 0.00 0.00 0.00 85 1060.3
20260903004004 63 157 5.2 0.0 0.00 0.00 0.00 85 1060.4
20260903003843 63 225 6.1 0.0 0.00 0.00 0.00 84 1060.3
20260903003728 63 202 1.7 0.0 0.00 0.00 0.00 84 1060.3
20260903003613 63 202 10.4 0.0 0.00 0.00 0.00 84 1060.4
20260903003508 63 202 6.1 0.0 0.00 0.00 0.00 84 1060.3
20260903003402 63 202 10.4 0.0 0.00 0.00 0.00 84 1060.4
20260903003255 63 157 2.6 0.0 0.00 0.00 0.00 84 1060.4
20260903003149 63 202 10.4 0.0 0.00 0.00 0.00 84 1060.4
20260903003029 63 202 4.3 0.0 0.00 0.00 0.00 84 1060.4
20260903002921 63 225 11.3 0.0 0.00 0.00 0.00 84 1060.5
20260903002807 63 180 11.3 0.0 0.00 0.00 0.00 84 1060.4
20260903002652 63 225 5.2 0.0 0.00 0.00 0.00 84 1060.5
20260903002532 63 202 7.0 0.0 0.00 0.00 0.00 85 1060.5
20260903002424 63 157 4.3 0.0 0.00 0.00 0.00 85 1060.5
20260903002311 63 225 6.1 0.0 0.00 0.00 0.00 84 1060.5
20260903002204 63 247 2.6 0.0 0.00 0.00 0.00 85 1060.5
20260903002048 63 270 5.2 0.0 0.00 0.00 0.00 85 1060.6
20260903001937 63 202 6.1 0.0 0.00 0.00 0.00 85 1060.6
20260903001829 63 225 5.2 0.0 0.00 0.00 0.00 85 1060.5
20260903001714 63 135 2.6 0.0 0.00 0.00 0.00 85 1060.6
20260903001553 63 202 2.6 0.0 0.00 0.00 0.00 85 1060.5
20260903001447 63 270 0.0 0.0 0.00 0.00 0.00 85 1060.6
20260903001339 63 225 6.1 0.0 0.00 0.00 0.00 85 1060.6
20260903001218 63 180 3.5 0.0 0.00 0.00 0.00 85 1060.6
20260903001104 63 202 0.0 0.0 0.00 0.00 0.00 85 1060.7
20260903000949 63 202 7.0 0.0 0.00 0.00 0.00 85 1060.6
20260903000818 63 180 4.3 0.0 0.00 0.00 0.00 85 1060.6
20260903000705 63 225 5.2 0.0 0.00 0.00 0.00 85 1060.7
20260903000558 63 180 4.3 0.0 0.00 0.00 0.00 85 1060.7
20260903000454 63 202 4.3 0.0 0.00 0.00 0.00 85 1060.7
20260903000332 63 202 6.1 0.0 0.00 0.00 0.00 85 1060.7
20260903000226 63 202 6.1 0.0 0.00 0.00 0.00 85 1060.8
20260903000110 63 202 9.6 0.0 0.00 0.00 0.00 85 1060.7
20260902235955 63 202 0.0 0.0 0.00 0.00 0.00 85 1060.8
20260902235833 63 180 3.5 0.0 0.00 0.00 0.00 85 1060.8
20260902235727 63 157 0.0 0.0 0.00 0.00 0.00 85 1060.8
20260902235613 63 180 3.5 0.0 0.00 0.00 0.00 85 1060.7
20260902235459 63 202 3.5 0.0 0.00 0.00 0.00 85 1060.8
20260902235352 63 225 7.0 0.0 0.00 0.00 0.00 85 1060.7
20260902235230 63 225 0.0 0.0 0.00 0.00 0.00 85 1060.7
20260902235108 63 180 0.0 0.0 0.00 0.00 0.00 85 1060.8
20260902235002 63 180 2.6 0.0 0.00 0.00 0.00 84 1060.7
20260902234856 63 202 5.2 0.0 0.00 0.00 0.00 84 1060.9
20260902234750 63 202 3.5 0.0 0.00 0.00 0.00 84 1060.8
20260902234644 63 202 4.3 0.0 0.00 0.00 0.00 84 1060.8
20260902234532 63 202 4.3 0.0 0.00 0.00 0.00 84 1060.9
20260902234424 63 180 2.6 0.0 0.00 0.00 0.00 84 1060.9
20260902234305 63 180 0.0 0.0 0.00 0.00 0.00 84 1060.9
20260902234156 63 202 0.0 0.0 0.00 0.00 0.00 84 1060.9
20260902234042 63 225 5.2 0.0 0.00 0.00 0.00 84 1060.9
20260902233936 63 247 4.3 0.0 0.00 0.00 0.00 84 1060.9
20260902233821 63 180 3.5 0.0 0.00 0.00 0.00 84 1060.9
20260902233659 63 202 0.0 0.0 0.00 0.00 0.00 84 1060.9
20260902233548 63 180 1.7 0.0 0.00 0.00 0.00 84 1061.0
20260902233442 63 180 6.1 0.0 0.00 0.00 0.00 84 1061.0
20260902233334 63 225 4.3 0.0 0.00 0.00 0.00 84 1061.0
20260902233227 63 180 5.2 0.0 0.00 0.00 0.00 84 1061.0
20260902233114 63 202 0.0 0.0 0.00 0.00 0.00 84 1061.0
20260902233001 63 202 4.3 0.0 0.00 0.00 0.00 84 1061.1
20260902232839 63 180 4.3 0.0 0.00 0.00 0.00 84 1061.1
20260902232734 63 225 0.0 0.0 0.00 0.00 0.00 84 1061.1
20260902232628 63 202 0.0 0.0 0.00 0.00 0.00 84 1061.1
20260902232515 63 202 5.2 0.0 0.00 0.00 0.00 84 1061.1
20260902232410 63 180 5.2 0.0 0.00 0.00 0.00 84 1061.1
20260902232256 63 180 4.3 0.0 0.00 0.00 0.00 84 1061.2
20260902232143 63 225 10.4 0.0 0.00 0.00 0.00 84 1061.1
20260902232038 63 180 1.7 0.0 0.00 0.00 0.00 84 1061.1
20260902231924 63 270 0.0 0.0 0.00 0.00 0.00 84 1061.1
20260902231801 63 202 1.7 0.0 0.00 0.00 0.00 84 1061.2
20260902231648 63 157 3.5 0.0 0.00 0.00 0.00 84 1061.2
20260902231533 63 180 4.3 0.0 0.00 0.00 0.00 84 1061.2
20260902231403 63 225 0.0 0.0 0.00 0.00 0.00 84 1061.2
20260902231249 63 180 5.2 0.0 0.00 0.00 0.00 84 1061.3
20260902231144 63 202 4.3 0.0 0.00 0.00 0.00 84 1061.2
20260902231037 63 270 5.2 0.0 0.00 0.00 0.00 84 1061.2
20260902230932 63 225 4.3 0.0 0.00 0.00 0.00 84 1061.3
20260902230825 63 202 6.1 0.0 0.00 0.00 0.00 84 1061.2
20260902230720 63 202 4.3 0.0 0.00 0.00 0.00 84 1061.2
20260902230614 63 225 2.6 0.0 0.00 0.00 0.00 84 1061.3
20260902230507 63 225 6.1 0.0 0.00 0.00 0.00 84 1061.3
20260902230353 63 202 0.0 0.0 0.00 0.00 0.00 84 1061.2
20260902230231 63 202 5.2 0.0 0.00 0.00 0.00 84 1061.3
20260902230117 63 225 5.2 0.0 0.00 0.00 0.00 83 1061.3
20260902230011 63 180 7.0 0.0 0.00 0.00 0.00 84 1061.4
20260902225905 63 180 0.0 0.0 0.00 0.00 0.00 84 1061.3
20260902225758 63 202 2.6 0.0 0.00 0.00 0.00 84 1061.5
20260902225644 63 180 7.8 0.0 0.00 0.00 0.00 84 1061.5
20260902225529 63 202 0.0 0.0 0.00 0.00 0.00 83 1061.3
20260902225409 63 180 4.3 0.0 0.00 0.00 0.00 83 1061.5
20260902225306 63 202 6.1 0.0 0.00 0.00 0.00 83 1061.4
20260902225158 63 247 3.5 0.0 0.00 0.00 0.00 83 1061.5
20260902225053 63 225 2.6 0.0 0.00 0.00 0.00 83 1061.6
20260902224948 63 180 3.5 0.0 0.00 0.00 0.00 83 1061.4
20260902224825 63 202 4.3 0.0 0.00 0.00 0.00 83 1061.5
20260902224715 63 202 4.3 0.0 0.00 0.00 0.00 83 1061.6
20260902224607 63 180 3.5 0.0 0.00 0.00 0.00 83 1061.6
20260902224454 63 225 5.2 0.0 0.00 0.00 0.00 83 1061.6
20260902224349 63 202 4.3 0.0 0.00 0.00 0.00 84 1061.6
20260902224227 63 225 7.8 0.0 0.00 0.00 0.00 83 1061.7
20260902224121 63 202 0.0 0.0 0.00 0.00 0.00 83 1061.6
20260902224016 63 202 0.0 0.0 0.00 0.00 0.00 84 1061.7
20260902223902 63 180 8.7 0.0 0.00 0.00 0.00 84 1061.7
20260902223748 63 225 1.7 0.0 0.00 0.00 0.00 84 1061.7
20260902223634 63 180 10.4 0.0 0.00 0.00 0.00 84 1061.7
20260902223520 63 157 1.7 0.0 0.00 0.00 0.00 84 1061.7
20260902223406 63 202 4.3 0.0 0.00 0.00 0.00 84 1061.7
20260902223253 63 270 2.6 0.0 0.00 0.00 0.00 84 1061.8
20260902223147 63 270 0.0 0.0 0.00 0.00 0.00 84 1061.8
20260902223040 63 225 6.1 0.0 0.00 0.00 0.00 84 1061.7
20260902222911 63 202 8.7 0.0 0.00 0.00 0.00 84 1061.7
20260902222757 63 225 7.0 0.0 0.00 0.00 0.00 84 1061.7
20260902222634 63 202 7.0 0.0 0.00 0.00 0.00 84 1061.8
20260902222513 63 202 1.7 0.0 0.00 0.00 0.00 84 1061.7
20260902222351 63 225 7.0 0.0 0.00 0.00 0.00 84 1061.8
20260902222236 63 180 4.3 0.0 0.00 0.00 0.00 84 1061.9
20260902222123 63 225 1.7 0.0 0.00 0.00 0.00 84 1062.0
20260902222010 63 202 0.0 0.0 0.00 0.00 0.00 84 1061.8
20260902221849 63 225 7.0 0.0 0.00 0.00 0.00 84 1061.9
20260902221745 63 202 5.2 0.0 0.00 0.00 0.00 84 1061.9
20260902221639 63 247 5.2 0.0 0.00 0.00 0.00 84 1062.0
20260902221525 63 180 5.2 0.0 0.00 0.00 0.00 84 1061.9
20260902221405 63 225 4.3 0.0 0.00 0.00 0.00 83 1062.0
20260902221257 63 202 0.0 0.0 0.00 0.00 0.00 83 1062.0
20260902221136 63 202 2.6 0.0 0.00 0.00 0.00 83 1062.0
20260902221030 63 180 2.6 0.0 0.00 0.00 0.00 83 1061.9
20260902220916 63 202 0.0 0.0 0.00 0.00 0.00 83 1061.9
20260902220804 63 202 3.5 0.0 0.00 0.00 0.00 83 1061.9
20260902220657 63 202 2.6 0.0 0.00 0.00 0.00 83 1061.9
20260902220544 63 202 0.0 0.0 0.00 0.00 0.00 83 1061.9
20260902220431 63 202 2.6 0.0 0.00 0.00 0.00 84 1061.8
20260902220326 63 180 4.3 0.0 0.00 0.00 0.00 84 1061.9
20260902220213 63 180 4.3 0.0 0.00 0.00 0.00 84 1062.0
20260902220101 62 225 0.0 0.0 0.00 0.00 0.00 84 1061.8
20260902215954 62 225 5.2 0.0 0.00 0.00 0.00 84 1061.8
20260902215833 62 202 5.2 0.0 0.00 0.00 0.00 84 1061.9
20260902215712 62 225 6.1 0.0 0.00 0.00 0.00 84 1061.9
20260902215559 62 202 5.2 0.0 0.00 0.00 0.00 84 1061.9
20260902215446 62 202 5.2 0.0 0.00 0.00 0.00 84 1062.0
20260902215341 62 180 0.0 0.0 0.00 0.00 0.00 84 1061.9
20260902215219 62 202 7.0 0.0 0.00 0.00 0.00 84 1062.0
20260902215058 62 180 5.2 0.0 0.00 0.00 0.00 84 1062.1
20260902214939 62 202 1.7 0.0 0.00 0.00 0.00 84 1061.9
20260902214832 62 225 4.3 0.0 0.00 0.00 0.00 84 1061.9
20260902214729 62 202 4.3 0.0 0.00 0.00 0.00 84 1061.8
20260902214621 62 202 3.5 0.0 0.00 0.00 0.00 84 1062.0
20260902214509 62 202 3.5 0.0 0.00 0.00 0.00 83 1062.0
20260902214404 62 180 0.0 0.0 0.00 0.00 0.00 83 1061.9
20260902214253 62 180 1.7 0.0 0.00 0.00 0.00 83 1061.9
20260902214145 62 225 0.0 0.0 0.00 0.00 0.00 83 1061.9
20260902214033 62 180 3.5 0.0 0.00 0.00 0.00 83 1062.0
20260902213920 62 157 5.2 0.0 0.00 0.00 0.00 83 1061.9
20260902213750 62 202 3.5 0.0 0.00 0.00 0.00 83 1062.1
20260902213630 62 202 5.2 0.0 0.00 0.00 0.00 83 1062.0
20260902213523 62 202 3.5 0.0 0.00 0.00 0.00 82 1062.0
20260902213411 62 225 5.2 0.0 0.00 0.00 0.00 82 1062.0
20260902213305 63 202 0.0 0.0 0.00 0.00 0.00 82 1062.1
20260902213145 63 202 6.1 0.0 0.00 0.00 0.00 82 1062.1
20260902213031 62 202 2.6 0.0 0.00 0.00 0.00 82 1062.0
20260902212856 63 202 5.2 0.0 0.00 0.00 0.00 82 1062.0
20260902212749 63 202 0.0 0.0 0.00 0.00 0.00 82 1062.1
20260902212627 63 202 1.7 0.0 0.00 0.00 0.00 82 1062.0
20260902212458 63 202 3.5 0.0 0.00 0.00 0.00 82 1062.1
20260902212353 63 202 3.5 0.0 0.00 0.00 0.00 82 1062.1
20260902212240 63 202 1.7 0.0 0.00 0.00 0.00 82 1062.1
20260902212127 63 225 0.0 0.0 0.00 0.00 0.00 83 1062.1
20260902212014 63 225 1.7 0.0 0.00 0.00 0.00 83 1062.0
20260902211909 63 202 4.3 0.0 0.00 0.00 0.00 83 1062.1
20260902211756 63 180 0.0 0.0 0.00 0.00 0.00 83 1062.1
20260902211649 63 225 4.3 0.0 0.00 0.00 0.00 83 1062.1
20260902211539 63 225 1.7 0.0 0.00 0.00 0.00 83 1062.1
20260902211433 63 202 5.2 0.0 0.00 0.00 0.00 83 1062.0
20260902211327 63 202 4.3 0.0 0.00 0.00 0.00 83 1062.1
20260902211215 63 202 3.5 0.0 0.00 0.00 0.00 83 1062.2
20260902211053 63 202 3.5 0.0 0.00 0.00 0.00 83 1062.1
20260902210940 63 202 5.2 0.0 0.00 0.00 0.00 83 1062.1
20260902210827 63 180 2.6 0.0 0.00 0.00 0.00 83 1062.0
20260902210714 63 180 4.3 0.0 0.00 0.00 0.00 83 1062.1
20260902210601 63 202 3.5 0.0 0.00 0.00 0.00 83 1062.1
20260902210455 63 225 1.7 0.0 0.00 0.00 0.00 83 1062.1
20260902210344 63 180 3.5 0.0 0.00 0.00 0.00 83 1062.2
20260902210229 63 202 0.0 0.0 0.00 0.00 0.00 83 1062.1
20260902210108 63 180 3.5 0.0 0.00 0.00 0.00 82 1062.1
20260902205955 63 202 4.3 0.0 0.00 0.00 0.00 82 1062.2
20260902205834 63 180 0.0 0.0 0.00 0.00 0.00 82 1062.1
20260902205721 63 202 2.6 0.0 0.00 0.00 0.00 82 1062.2
20260902205617 63 202 0.0 0.0 0.00 0.00 0.00 82 1062.2
20260902205510 63 202 0.0 0.0 0.00 0.00 0.00 82 1062.2
20260902205357 63 202 0.0 0.0 0.00 0.00 0.00 82 1062.2
20260902205244 63 202 0.0 0.0 0.00 0.00 0.00 82 1062.1
20260902205134 63 202 0.0 0.0 0.00 0.00 0.00 82 1062.2
20260902205019 63 225 3.5 0.0 0.00 0.00 0.00 82 1062.1
20260902204913 63 180 2.6 0.0 0.00 0.00 0.00 82 1062.3
20260902204751 63 202 0.0 0.0 0.00 0.00 0.00 82 1062.3
20260902204640 63 202 3.5 0.0 0.00 0.00 0.00 82 1062.3
20260902204517 63 180 4.3 0.0 0.00 0.00 0.00 82 1062.3
20260902204359 63 180 2.6 0.0 0.00 0.00 0.00 82 1062.3
20260902204252 63 202 0.0 0.0 0.00 0.00 0.00 82 1062.3
20260902204146 63 202 3.5 0.0 0.00 0.00 0.00 82 1062.3
20260902204033 63 202 0.0 0.0 0.00 0.00 0.00 82 1062.3
20260902203922 63 157 0.0 0.0 0.00 0.00 0.00 82 1062.3
20260902203815 63 225 2.6 0.0 0.00 0.00 0.00 82 1062.4
20260902203701 63 202 0.0 0.0 0.00 0.00 0.00 82 1062.4
20260902203541 63 225 0.0 0.0 0.00 0.00 0.00 82 1062.3
20260902203435 63 202 0.0 0.0 0.00 0.00 0.00 82 1062.5
20260902203314 63 202 0.0 0.0 0.00 0.00 0.00 82 1062.4
20260902203153 63 202 0.0 0.0 0.00 0.00 0.00 82 1062.4
20260902203048 63 180 0.0 0.0 0.00 0.00 0.00 82 1062.4
20260902202918 63 247 0.0 0.0 0.00 0.00 0.00 82 1062.4
20260902202807 63 180 2.6 0.0 0.00 0.00 0.00 82 1062.5
20260902202701 63 180 0.0 0.0 0.00 0.00 0.00 82 1062.4
20260902202555 63 247 0.0 0.0 0.00 0.00 0.00 82 1062.4
20260902202434 63 247 0.0 0.0 0.00 0.00 0.00 82 1062.4
20260902202313 63 270 0.0 0.0 0.00 0.00 0.00 82 1062.5
20260902202152 63 225 0.0 0.0 0.00 0.00 0.00 82 1062.5
20260902202030 63 225 0.0 0.0 0.00 0.00 0.00 82 1062.5
20260902201909 63 225 0.0 0.0 0.00 0.00 0.00 82 1062.5
20260902201748 63 225 0.0 0.0 0.00 0.00 0.00 82 1062.6
20260902201627 63 225 0.0 0.0 0.00 0.00 0.00 82 1062.5
20260902201516 63 247 0.0 0.0 0.00 0.00 0.00 82 1062.5
20260902201408 63 202 1.7 0.0 0.00 0.00 0.00 82 1062.5
20260902201256 63 247 0.0 0.0 0.00 0.00 0.00 82 1062.6
20260902201136 63 270 0.0 0.0 0.00 0.00 0.00 82 1062.5
20260902201032 63 202 0.0 0.0 0.00 0.00 0.00 82 1062.6
20260902200925 63 247 0.0 0.0 0.00 0.00 0.00 82 1062.5
20260902200819 63 247 1.7 0.0 0.00 0.00 0.00 82 1062.5
20260902200658 63 247 0.0 0.0 0.00 0.00 0.00 82 1062.6
20260902200536 63 225 0.0 0.0 0.00 0.00 0.00 82 1062.6
20260902200416 63 247 3.5 0.0 0.00 0.00 0.00 82 1062.6
20260902200309 63 247 1.7 0.0 0.00 0.00 0.00 82 1062.6
20260902200133 63 225 1.7 0.0 0.00 0.00 0.00 82 1062.7
20260902200012 63 225 0.0 0.0 0.00 0.00 0.00 82 1062.6
20260902195842 63 247 0.0 0.0 0.00 0.00 0.00 82 1062.6
20260902195722 63 292 4.3 0.0 0.00 0.00 0.00 82 1062.7
20260902195616 63 225 1.7 0.0 0.00 0.00 0.00 82 1062.6
20260902195358 63 202 3.5 0.0 0.00 0.00 0.00 82 1062.7
20260902195245 63 270 0.0 0.0 0.00 0.00 0.00 82 1062.6
20260902195124 63 247 0.0 0.0 0.00 0.00 0.00 82 1062.7
20260902195013 63 270 0.0 0.0 0.00 0.00 0.00 82 1062.6
20260902194905 63 225 7.8 0.0 0.00 0.00 0.00 82 1062.7
20260902194746 63 247 0.0 0.0 0.00 0.00 0.00 82 1062.6
20260902194639 63 270 0.0 0.0 0.00 0.00 0.00 82 1062.6
20260902194518 63 225 0.9 0.0 0.00 0.00 0.00 82 1062.6
20260902194404 63 270 0.0 0.0 0.00 0.00 0.00 82 1062.6
20260902194252 63 270 1.7 0.0 0.00 0.00 0.00 82 1062.6
20260902194138 63 270 3.5 0.0 0.00 0.00 0.00 82 1062.6
20260902194019 63 270 3.5 0.0 0.00 0.00 0.00 82 1062.5
20260902193912 63 270 2.6 0.0 0.00 0.00 0.00 82 1062.6
20260902193754 63 225 2.6 0.0 0.00 0.00 0.00 82 1062.6
20260902193648 63 247 2.6 0.0 0.00 0.00 0.00 82 1062.6
20260902193541 63 225 0.0 0.0 0.00 0.00 0.00 82 1062.6
20260902193420 63 247 0.0 0.0 0.00 0.00 0.00 82 1062.6
20260902193300 64 247 0.0 0.0 0.00 0.00 0.00 82 1062.5
20260902193154 64 315 2.6 0.0 0.00 0.00 0.00 82 1062.6
20260902193043 64 270 3.5 0.0 0.00 0.00 0.00 82 1062.5
20260902192935 64 270 0.0 0.0 0.00 0.00 0.00 83 1062.7
20260902192806 64 270 0.0 0.0 0.00 0.00 0.00 83 1062.6
20260902192654 64 247 2.6 0.0 0.00 0.00 0.00 83 1062.6
20260902192548 64 270 0.0 0.0 0.00 0.00 0.00 83 1062.6
20260902192426 64 247 0.0 0.0 0.00 0.00 0.00 83 1062.7
20260902192307 64 247 0.0 0.0 0.00 0.00 0.00 83 1062.7
20260902192136 64 247 0.0 0.0 0.00 0.00 0.00 83 1062.7
20260902192023 64 247 0.0 0.0 0.00 0.00 0.00 83 1062.7
20260902191910 64 292 4.3 0.0 0.00 0.00 0.00 83 1062.7
20260902191748 64 225 1.7 0.0 0.00 0.00 0.00 83 1062.6
20260902191637 64 270 4.3 0.0 0.00 0.00 0.00 83 1062.6
20260902191530 64 225 0.0 0.0 0.00 0.00 0.00 83 1062.7
20260902191401 64 270 4.3 0.0 0.00 0.00 0.00 83 1062.7
20260902191242 64 270 3.5 0.0 0.00 0.00 0.00 83 1062.7
20260902191137 64 270 1.7 0.0 0.00 0.00 0.00 83 1062.7
20260902191032 64 270 3.5 0.0 0.00 0.00 0.00 83 1062.6
20260902190925 64 270 0.0 0.0 0.00 0.00 0.00 83 1062.7
20260902190820 64 247 0.0 0.0 0.00 0.00 0.00 83 1062.7
20260902190707 64 247 3.5 0.0 0.00 0.00 0.00 83 1062.7
20260902190556 64 247 0.0 0.0 0.00 0.00 0.00 83 1062.7
20260902190449 64 202 0.0 0.0 0.00 0.00 0.00 83 1062.7
20260902190326 65 270 2.6 0.0 0.00 0.00 0.00 83 1062.7
20260902190206 65 247 3.5 0.0 0.00 0.00 0.00 83 1062.7
20260902190053 65 247 5.2 0.0 0.00 0.00 0.00 83 1062.8
20260902185941 65 270 4.3 0.0 0.00 0.00 0.00 83 1062.8
20260902185837 65 270 3.5 0.0 0.00 0.00 0.00 83 1062.7
20260902185724 65 315 6.1 0.0 0.00 0.00 0.00 83 1062.8
20260902185616 65 270 3.5 0.0 0.00 0.00 0.00 83 1062.8
20260902185455 65 270 1.7 0.0 0.00 0.00 0.00 83 1062.8
20260902185336 65 270 5.2 0.0 0.00 0.00 0.00 83 1062.8
20260902185231 65 270 4.3 0.0 0.00 0.00 0.00 83 1062.8
20260902185117 65 270 4.3 0.0 0.00 0.00 0.00 83 1062.8
20260902185003 65 270 5.2 0.0 0.00 0.00 0.00 83 1062.8
20260902184842 65 270 0.0 0.0 0.00 0.00 0.00 83 1062.8
20260902184737 65 247 4.3 0.0 0.00 0.00 0.00 83 1062.7
20260902184623 65 270 4.3 0.0 0.00 0.00 0.00 83 1062.8
20260902184502 65 270 0.0 0.0 0.00 0.00 0.00 83 1062.7
20260902184342 65 247 4.3 0.0 0.00 0.00 0.00 83 1062.8
20260902184227 65 270 4.3 0.0 0.00 0.00 0.00 83 1062.7
20260902184109 65 292 2.6 0.0 0.00 0.00 0.00 83 1062.7
20260902184004 65 270 0.0 0.0 0.00 0.00 0.00 83 1062.8
20260902183858 65 292 3.5 0.0 0.00 0.00 0.00 83 1062.8
20260902183754 65 247 3.5 0.0 0.00 0.00 0.00 83 1062.8
20260902183638 65 270 1.7 0.0 0.00 0.00 0.00 83 1062.8
20260902183527 65 292 0.0 0.0 0.00 0.00 0.00 83 1062.8
20260902183420 65 315 5.2 0.0 0.00 0.00 0.00 83 1062.8
20260902183301 65 292 5.2 0.0 0.00 0.00 0.00 83 1062.8
20260902183146 65 292 5.2 0.0 0.00 0.00 0.00 83 1062.9
20260902183033 65 270 1.7 0.0 0.00 0.00 0.00 83 1063.0
20260902182912 65 270 0.0 0.0 0.00 0.00 0.00 83 1062.8
20260902182751 65 270 0.0 0.0 0.00 0.00 0.00 83 1062.8
20260902182646 65 292 4.3 0.0 0.00 0.00 0.00 83 1062.7
20260902182540 65 292 1.7 0.0 0.00 0.00 0.00 82 1062.7
20260902182427 65 270 1.7 0.0 0.00 0.00 0.00 82 1062.6
20260902182258 65 270 0.0 0.0 0.00 0.00 0.00 82 1062.6
20260902182141 65 270 0.0 0.0 0.00 0.00 0.00 82 1062.6
20260902182034 65 292 2.6 0.0 0.00 0.00 0.00 82 1062.5
20260902181919 65 270 1.7 0.0 0.00 0.00 0.00 81 1062.6
20260902181805 65 270 0.0 0.0 0.00 0.00 0.00 81 1062.5
20260902181637 65 315 2.6 0.0 0.00 0.00 0.00 81 1062.6
20260902181523 65 225 0.0 0.0 0.00 0.00 0.00 81 1062.6
20260902181402 65 270 0.0 0.0 0.00 0.00 0.00 81 1062.6
20260902181240 65 270 0.0 0.0 0.00 0.00 0.00 81 1062.6
20260902181119 65 270 0.0 0.0 0.00 0.00 0.00 81 1062.6
20260902181000 65 270 0.9 0.0 0.00 0.00 0.00 81 1062.5
20260902180854 65 270 4.3 0.0 0.00 0.00 0.00 80 1062.5
20260902180748 65 270 0.0 0.0 0.00 0.00 0.00 80 1062.4
20260902180634 65 270 7.0 0.0 0.00 0.00 0.00 80 1062.5
20260902180514 65 270 3.5 0.0 0.00 0.00 0.00 80 1062.5
20260902180359 65 270 2.6 0.0 0.00 0.00 0.00 79 1062.5
20260902180246 66 270 4.3 0.0 0.00 0.00 0.00 79 1062.5
20260902180132 66 270 0.0 0.0 0.00 0.00 0.00 79 1062.5
20260902180018 66 315 5.2 0.0 0.00 0.00 0.00 79 1062.5
20260902175904 66 292 3.5 0.0 0.00 0.00 0.00 79 1062.5
20260902175744 66 315 6.1 0.0 0.00 0.00 0.00 78 1062.5
20260902175630 66 270 6.1 0.0 0.00 0.00 0.00 78 1062.5
20260902175517 66 292 0.0 0.0 0.00 0.00 0.00 78 1062.5
20260902175403 66 270 2.6 0.0 0.00 0.00 0.00 78 1062.5
20260902175234 66 292 3.5 0.0 0.00 0.00 0.00 78 1062.5
20260902175113 66 292 3.5 0.0 0.00 0.00 0.00 77 1062.5
20260902174944 66 315 5.2 0.0 0.00 0.00 0.00 77 1062.5
20260902174830 66 247 3.5 0.0 0.00 0.00 0.00 76 1062.6
20260902174701 66 292 0.0 0.0 0.00 0.00 0.00 76 1062.6
20260902174549 66 315 6.1 0.0 0.00 0.00 0.00 76 1062.6
20260902174435 66 270 4.3 0.0 0.00 0.00 0.00 75 1062.6
20260902174322 66 292 8.7 0.0 0.00 0.00 0.00 75 1062.6
20260902174209 66 315 4.3 0.0 0.00 0.00 0.00 74 1062.7
20260902174104 66 292 4.3 0.0 0.00 0.00 0.00 75 1062.7
20260902173952 66 247 3.5 0.0 0.00 0.00 0.00 74 1062.6
20260902173846 66 247 5.2 0.0 0.00 0.00 0.00 74 1062.7
20260902173716 66 270 9.6 0.0 0.00 0.00 0.00 74 1062.7
20260902173604 66 292 3.5 0.0 0.00 0.00 0.00 74 1062.7
20260902173458 66 270 3.5 0.0 0.00 0.00 0.00 74 1062.7
20260902173329 66 315 2.6 0.0 0.00 0.00 0.00 74 1062.6
20260902173217 66 247 7.0 0.0 0.00 0.00 0.00 74 1062.6
20260902173110 66 270 3.5 0.0 0.00 0.00 0.00 74 1062.6
20260902172949 66 292 7.0 0.0 0.00 0.00 0.00 74 1062.6
20260902172829 67 225 4.3 0.0 0.00 0.00 0.00 73 1062.6
20260902172716 66 315 5.2 0.0 0.00 0.00 0.00 73 1062.6
20260902172552 66 247 7.8 0.0 0.00 0.00 0.00 73 1062.6
20260902172433 67 270 6.1 0.0 0.00 0.00 0.00 73 1062.6
20260902172325 67 292 9.6 0.0 0.00 0.00 0.00 73 1062.6
20260902172211 67 315 3.5 0.0 0.00 0.00 0.00 73 1062.6
20260902172105 67 292 2.6 0.0 0.00 0.00 0.00 73 1062.6
20260902171952 67 315 4.3 0.0 0.00 0.00 0.00 73 1062.6
20260902171848 67 270 4.3 0.0 0.00 0.00 0.00 73 1062.6
20260902171733 67 247 7.8 0.0 0.00 0.00 0.00 73 1062.6
20260902171627 67 270 6.1 0.0 0.00 0.00 0.00 73 1062.6
20260902171522 67 292 4.3 0.0 0.00 0.00 0.00 73 1062.6
20260902171415 67 315 7.8 0.0 0.00 0.00 0.00 73 1062.6
20260902171301 67 247 2.6 0.0 0.00 0.00 0.00 73 1062.6
20260902171148 67 292 7.8 0.0 0.00 0.00 0.00 73 1062.6
20260902171034 67 292 6.1 0.0 0.00 0.00 0.00 73 1062.6
20260902170915 67 315 3.5 0.0 0.00 0.00 0.00 72 1062.5
20260902170808 67 315 5.2 0.0 0.00 0.00 0.00 72 1062.5
20260902170648 67 292 5.2 0.0 0.00 0.00 0.00 72 1062.6
20260902170542 67 337 6.1 0.0 0.00 0.00 0.00 72 1062.6
20260902170421 67 315 6.1 0.0 0.00 0.00 0.00 72 1062.6
20260902170259 67 247 9.6 0.0 0.00 0.00 0.00 71 1062.6
20260902170146 67 270 0.0 0.0 0.00 0.00 0.00 71 1062.7
20260902170036 67 292 6.1 0.0 0.00 0.00 0.00 71 1062.7
20260902165928 67 315 4.3 0.0 0.00 0.00 0.00 72 1062.7
20260902165815 67 270 5.2 0.0 0.00 0.00 0.00 73 1062.6
20260902165700 67 315 5.2 0.0 0.00 0.00 0.00 74 1062.6
20260902165541 67 270 5.2 0.0 0.00 0.00 0.00 74 1062.6
20260902165436 67 315 3.5 0.0 0.00 0.00 0.00 74 1062.6
20260902165331 68 292 4.3 0.0 0.00 0.00 0.00 74 1062.6
20260902165225 68 270 3.5 0.0 0.00 0.00 0.00 74 1062.7
20260902165111 68 292 7.0 0.0 0.00 0.00 0.00 74 1062.7
20260902165000 68 247 4.3 0.0 0.00 0.00 0.00 74 1062.6
20260902164854 68 292 4.3 0.0 0.00 0.00 0.00 74 1062.7
20260902164742 68 292 2.6 0.0 0.00 0.00 0.00 73 1062.6
20260902164635 68 270 5.2 0.0 0.00 0.00 0.00 73 1062.7
20260902164523 68 247 5.2 0.0 0.00 0.00 0.00 73 1062.7
20260902164407 69 247 2.6 0.0 0.00 0.00 0.00 73 1062.7
20260902164254 69 247 5.2 0.0 0.00 0.00 0.00 73 1062.7
20260902164141 69 292 2.6 0.0 0.00 0.00 0.00 73 1062.7
20260902164037 69 315 4.3 0.0 0.00 0.00 0.00 72 1062.7
20260902163931 69 292 6.1 0.0 0.00 0.00 0.00 72 1062.8
20260902163816 69 292 0.0 0.0 0.00 0.00 0.00 71 1062.7
20260902163706 70 292 3.5 0.0 0.00 0.00 0.00 71 1062.7
20260902163559 70 292 3.5 0.0 0.00 0.00 0.00 71 1062.8
20260902163447 70 247 6.1 0.0 0.00 0.00 0.00 71 1062.8
20260902163342 70 270 3.5 0.0 0.00 0.00 0.00 71 1062.8
20260902163235 70 292 5.2 0.0 0.00 0.00 0.00 71 1062.8
20260902163122 71 292 5.2 0.0 0.00 0.00 0.00 71 1062.8
20260902163000 71 337 5.2 0.0 0.00 0.00 0.00 71 1062.8
20260902162841 71 292 4.3 0.0 0.00 0.00 0.00 70 1062.8
20260902162725 71 315 3.5 0.0 0.00 0.00 0.00 70 1062.8
20260902162612 71 292 2.6 0.0 0.00 0.00 0.00 70 1062.8
20260902162452 71 292 7.0 0.0 0.00 0.00 0.00 69 1062.8
20260902162339 71 292 4.3 0.0 0.00 0.00 0.00 69 1062.8
20260902162225 71 315 3.5 0.0 0.00 0.00 0.00 69 1062.8
20260902162114 71 315 5.2 0.0 0.00 0.00 0.00 69 1062.7
20260902161959 71 315 0.0 0.0 0.00 0.00 0.00 69 1062.8
20260902161845 71 247 5.2 0.0 0.00 0.00 0.00 68 1062.7
20260902161734 72 270 2.6 0.0 0.00 0.00 0.00 68 1062.8
20260902161620 72 292 2.6 0.0 0.00 0.00 0.00 69 1062.7
20260902161507 72 292 8.7 0.0 0.00 0.00 0.00 69 1062.8
20260902161347 72 292 5.2 0.0 0.00 0.00 0.00 69 1062.7
20260902161241 72 292 0.0 0.0 0.00 0.00 0.00 69 1062.8
20260902161135 72 270 3.5 0.0 0.00 0.00 0.00 69 1062.7
20260902161015 72 270 5.2 0.0 0.00 0.00 0.00 69 1062.8
20260902160902 71 270 0.0 0.0 0.00 0.00 0.00 70 1062.8
20260902160740 71 270 3.5 0.0 0.00 0.00 0.00 69 1062.9
20260902160630 71 270 5.2 0.0 0.00 0.00 0.00 69 1062.8
20260902160514 72 270 2.6 0.0 0.00 0.00 0.00 69 1062.7
20260902160353 72 292 5.2 0.0 0.00 0.00 0.00 68 1062.8
20260902160242 72 292 4.3 0.0 0.00 0.00 0.00 68 1062.7
20260902160137 72 292 7.8 0.0 0.00 0.00 0.00 68 1062.7
20260902160032 72 315 5.2 0.0 0.00 0.00 0.00 68 1062.8
20260902155925 73 247 6.1 0.0 0.00 0.00 0.00 68 1062.7
20260902155805 73 270 0.0 0.0 0.00 0.00 0.00 67 1062.8
20260902155654 73 270 0.0 0.0 0.00 0.00 0.00 67 1062.8
20260902155548 73 292 5.2 0.0 0.00 0.00 0.00 67 1062.7
20260902155442 73 270 4.3 0.0 0.00 0.00 0.00 67 1062.8
20260902155323 73 270 0.0 0.0 0.00 0.00 0.00 66 1062.8
20260902155216 73 292 5.2 0.0 0.00 0.00 0.00 66 1062.8
20260902155103 74 270 4.3 0.0 0.00 0.00 0.00 65 1062.8
20260902154958 74 292 4.3 0.0 0.00 0.00 0.00 65 1062.8
20260902154845 74 315 2.6 0.0 0.00 0.00 0.00 65 1062.8
20260902154733 74 292 6.1 0.0 0.00 0.00 0.00 64 1062.8
20260902154618 75 292 6.1 0.0 0.00 0.00 0.00 63 1062.8
20260902154506 75 292 4.3 0.0 0.00 0.00 0.00 63 1062.9
20260902154400 75 292 5.2 0.0 0.00 0.00 0.00 63 1062.8
20260902154239 75 315 3.5 0.0 0.00 0.00 0.00 63 1062.8
20260902154109 75 292 5.2 0.0 0.00 0.00 0.00 63 1062.7
20260902153956 75 337 0.0 0.0 0.00 0.00 0.00 62 1062.8
20260902153844 75 270 4.3 0.0 0.00 0.00 0.00 62 1062.7
20260902153722 76 315 2.6 0.0 0.00 0.00 0.00 62 1062.8
20260902153611 76 270 3.5 0.0 0.00 0.00 0.00 62 1062.7
20260902153456 76 270 7.8 0.0 0.00 0.00 0.00 62 1062.8
20260902153343 76 270 3.5 0.0 0.00 0.00 0.00 62 1062.8
20260902153238 76 270 6.1 0.0 0.00 0.00 0.00 63 1062.8
20260902153116 76 292 0.0 0.0 0.00 0.00 0.00 63 1062.8
20260902152956 76 270 3.5 0.0 0.00 0.00 0.00 62 1062.8
20260902152850 76 292 4.3 0.0 0.00 0.00 0.00 63 1062.9
20260902152729 76 315 0.0 0.0 0.00 0.00 0.00 63 1063.0
20260902152607 76 292 2.6 0.0 0.00 0.00 0.00 63 1062.9
20260902152448 76 315 7.8 0.0 0.00 0.00 0.00 63 1063.0
20260902152343 76 270 4.3 0.0 0.00 0.00 0.00 64 1063.0
20260902152228 76 270 4.3 0.0 0.00 0.00 0.00 64 1063.0
20260902152117 76 292 0.0 0.0 0.00 0.00 0.00 64 1062.9
20260902152011 76 0 4.3 0.0 0.00 0.00 0.00 64 1063.0
20260902151906 76 292 5.2 0.0 0.00 0.00 0.00 64 1063.0
20260902151800 76 315 3.5 0.0 0.00 0.00 0.00 65 1063.0
20260902151639 76 270 2.6 0.0 0.00 0.00 0.00 64 1062.9
20260902151517 76 270 3.5 0.0 0.00 0.00 0.00 65 1063.0
20260902151407 76 315 2.6 0.0 0.00 0.00 0.00 65 1063.0
20260902151300 76 270 6.1 0.0 0.00 0.00 0.00 66 1063.0
20260902151147 75 315 3.5 0.0 0.00 0.00 0.00 66 1063.0
20260902151033 75 292 2.6 0.0 0.00 0.00 0.00 66 1063.1
20260902150921 75 270 2.6 0.0 0.00 0.00 0.00 66 1063.1
20260902150815 75 315 2.6 0.0 0.00 0.00 0.00 66 1063.1
20260902150705 75 247 0.0 0.0 0.00 0.00 0.00 67 1063.0
20260902150557 75 292 7.0 0.0 0.00 0.00 0.00 68 1063.0
20260902150437 74 270 5.2 0.0 0.00 0.00 0.00 69 1062.9
20260902150334 73 270 0.0 0.0 0.00 0.00 0.00 71 1063.0
20260902150219 73 247 0.0 0.0 0.00 0.00 0.00 71 1063.0
20260902150104 73 337 0.0 0.0 0.00 0.00 0.00 71 1063.0
20260902145954 72 270 4.3 0.0 0.00 0.00 0.00 72 1063.0
20260902145849 72 292 0.0 0.0 0.00 0.00 0.00 72 1063.0
20260902145736 72 270 4.3 0.0 0.00 0.00 0.00 72 1063.0
20260902145629 71 270 3.5 0.0 0.00 0.00 0.00 71 1063.1
20260902145524 72 315 6.1 0.0 0.00 0.00 0.00 71 1063.0
20260902145404 72 292 3.5 0.0 0.00 0.00 0.00 71 1063.1
20260902145258 72 270 2.6 0.0 0.00 0.00 0.00 71 1063.1
20260902145145 72 292 3.5 0.0 0.00 0.00 0.00 71 1063.1
20260902145033 72 315 4.3 0.0 0.00 0.00 0.00 71 1063.1
20260902144918 72 270 3.5 0.0 0.00 0.00 0.00 70 1063.1
20260902144757 72 270 4.3 0.0 0.00 0.00 0.00 70 1063.1
20260902144644 72 315 6.1 0.0 0.00 0.00 0.00 69 1063.1
20260902144531 72 292 5.2 0.0 0.00 0.00 0.00 69 1063.1
20260902144409 73 247 7.0 0.0 0.00 0.00 0.00 69 1063.1
20260902144257 73 292 6.1 0.0 0.00 0.00 0.00 68 1063.2
20260902144143 73 270 5.2 0.0 0.00 0.00 0.00 68 1063.1
20260902144016 73 270 4.3 0.0 0.00 0.00 0.00 67 1063.1
20260902143909 74 292 4.3 0.0 0.00 0.00 0.00 67 1063.1
20260902143755 74 270 5.2 0.0 0.00 0.00 0.00 67 1063.1
20260902143634 74 315 3.5 0.0 0.00 0.00 0.00 67 1063.1
20260902143514 74 337 4.3 0.0 0.00 0.00 0.00 68 1063.0
20260902143407 74 292 7.0 0.0 0.00 0.00 0.00 68 1063.1
20260902143247 74 270 5.2 0.0 0.00 0.00 0.00 69 1063.0
20260902143117 73 292 5.2 0.0 0.00 0.00 0.00 69 1063.0
20260902142956 73 315 5.2 0.0 0.00 0.00 0.00 69 1063.0
20260902142843 73 270 6.1 0.0 0.00 0.00 0.00 69 1063.1
20260902142723 73 247 4.3 0.0 0.00 0.00 0.00 69 1063.1
20260902142616 72 270 2.6 0.0 0.00 0.00 0.00 71 1062.9
20260902142456 72 292 5.2 0.0 0.00 0.00 0.00 71 1063.0
20260902142351 72 315 7.8 0.0 0.00 0.00 0.00 72 1063.0
20260902142247 72 270 3.5 0.0 0.00 0.00 0.00 72 1063.0
20260902142141 72 292 7.0 0.0 0.00 0.00 0.00 72 1063.0
20260902142036 72 292 3.5 0.0 0.00 0.00 0.00 72 1063.0
20260902141923 72 247 5.2 0.0 0.00 0.00 0.00 72 1062.9
20260902141817 72 270 1.7 0.0 0.00 0.00 0.00 73 1062.9
20260902141705 72 292 1.7 0.0 0.00 0.00 0.00 73 1062.9
20260902141552 72 270 2.6 0.0 0.00 0.00 0.00 72 1062.9
20260902141438 72 270 3.5 0.0 0.00 0.00 0.00 72 1062.8
20260902141319 72 247 4.3 0.0 0.00 0.00 0.00 72 1062.9
20260902141212 72 292 0.0 0.0 0.00 0.00 0.00 71 1062.8
20260902141101 72 270 4.3 0.0 0.00 0.00 0.00 71 1062.9
20260902140954 73 315 1.7 0.0 0.00 0.00 0.00 70 1062.8
20260902140831 73 292 3.5 0.0 0.00 0.00 0.00 71 1062.8
20260902140713 73 270 0.0 0.0 0.00 0.00 0.00 70 1062.8
20260902140558 73 270 7.8 0.0 0.00 0.00 0.00 70 1062.8
20260902140436 73 270 5.2 0.0 0.00 0.00 0.00 70 1062.8
20260902140315 73 270 5.2 0.0 0.00 0.00 0.00 70 1062.9
20260902140146 73 315 3.5 0.0 0.00 0.00 0.00 70 1062.9
20260902140025 73 225 5.2 0.0 0.00 0.00 0.00 69 1062.8
20260902135903 73 292 3.5 0.0 0.00 0.00 0.00 69 1062.9
20260902135751 74 292 5.2 0.0 0.00 0.00 0.00 69 1062.8
20260902135630 73 337 4.3 0.0 0.00 0.00 0.00 69 1062.9
20260902135516 74 247 4.3 0.0 0.00 0.00 0.00 69 1062.8
20260902135404 74 270 0.0 0.0 0.00 0.00 0.00 69 1062.8
20260902135258 74 247 5.2 0.0 0.00 0.00 0.00 69 1062.9
20260902135145 74 292 1.7 0.0 0.00 0.00 0.00 69 1062.8
20260902135033 74 292 2.6 0.0 0.00 0.00 0.00 69 1062.9
20260902134927 73 247 5.2 0.0 0.00 0.00 0.00 70 1062.9
20260902134806 73 270 0.0 0.0 0.00 0.00 0.00 70 1062.9
20260902134701 73 270 1.7 0.0 0.00 0.00 0.00 70 1062.9
20260902134548 73 292 1.7 0.0 0.00 0.00 0.00 70 1062.9
20260902134419 73 315 4.3 0.0 0.00 0.00 0.00 70 1062.9
20260902134314 73 270 1.7 0.0 0.00 0.00 0.00 70 1062.9
20260902134208 73 247 4.3 0.0 0.00 0.00 0.00 70 1062.9
20260902134047 73 292 5.2 0.0 0.00 0.00 0.00 69 1062.9
20260902133925 73 247 3.5 0.0 0.00 0.00 0.00 69 1063.0
20260902133804 73 270 3.5 0.0 0.00 0.00 0.00 69 1062.9
20260902133646 73 202 9.6 0.0 0.00 0.00 0.00 70 1062.9
20260902133538 73 202 5.2 0.0 0.00 0.00 0.00 70 1062.9
20260902133433 73 180 1.7 0.0 0.00 0.00 0.00 70 1063.0
20260902133320 73 292 5.2 0.0 0.00 0.00 0.00 70 1063.0
20260902133200 73 270 5.2 0.0 0.00 0.00 0.00 70 1062.9
20260902133053 73 247 4.3 0.0 0.00 0.00 0.00 71 1063.0
20260902132941 73 247 2.6 0.0 0.00 0.00 0.00 71 1063.0
20260902132828 72 247 3.5 0.0 0.00 0.00 0.00 72 1063.1
20260902132717 72 247 5.2 0.0 0.00 0.00 0.00 72 1063.0
20260902132611 72 292 0.0 0.0 0.00 0.00 0.00 71 1063.0
20260902132507 72 270 0.0 0.0 0.00 0.00 0.00 71 1063.0
20260902132359 72 270 3.5 0.0 0.00 0.00 0.00 71 1063.0
20260902132246 72 270 2.6 0.0 0.00 0.00 0.00 71 1063.0
20260902132134 72 247 4.3 0.0 0.00 0.00 0.00 71 1063.0
20260902132028 72 315 4.3 0.0 0.00 0.00 0.00 71 1063.0
20260902131915 72 270 3.5 0.0 0.00 0.00 0.00 71 1063.0
20260902131802 72 270 4.3 0.0 0.00 0.00 0.00 72 1063.0
20260902131650 72 180 0.0 0.0 0.00 0.00 0.00 72 1063.0
20260902131546 71 270 3.5 0.0 0.00 0.00 0.00 72 1063.0
20260902131439 71 247 3.5 0.0 0.00 0.00 0.00 72 1063.0
20260902131325 71 247 0.0 0.0 0.00 0.00 0.00 72 1063.0
20260902131213 71 247 1.7 0.0 0.00 0.00 0.00 72 1063.0
20260902131100 71 247 1.7 0.0 0.00 0.00 0.00 72 1063.0
20260902130939 71 180 0.0 0.0 0.00 0.00 0.00 72 1063.0
20260902130833 71 247 7.0 0.0 0.00 0.00 0.00 72 1063.0
20260902130727 71 247 3.5 0.0 0.00 0.00 0.00 72 1063.0
20260902130622 71 270 0.0 0.0 0.00 0.00 0.00 72 1063.0
20260902130516 71 270 2.6 0.0 0.00 0.00 0.00 72 1063.0
20260902130410 71 225 0.0 0.0 0.00 0.00 0.00 72 1062.9
20260902130305 71 247 3.5 0.0 0.00 0.00 0.00 72 1062.9
20260902130144 71 247 4.3 0.0 0.00 0.00 0.00 72 1062.9
20260902130023 71 247 1.7 0.0 0.00 0.00 0.00 71 1063.0
20260902125904 71 180 4.3 0.0 0.00 0.00 0.00 71 1062.9
20260902125758 71 247 0.0 0.0 0.00 0.00 0.00 70 1063.0
20260902125653 71 270 2.6 0.0 0.00 0.00 0.00 70 1063.0
20260902125546 71 225 1.7 0.0 0.00 0.00 0.00 70 1063.0
20260902125433 71 270 8.7 0.0 0.00 0.00 0.00 69 1063.0
20260902125321 71 202 4.3 0.0 0.00 0.00 0.00 68 1062.9
20260902125215 71 180 7.0 0.0 0.00 0.00 0.00 68 1062.9
20260902125111 71 270 0.0 0.0 0.00 0.00 0.00 68 1063.0
20260902125005 71 247 3.5 0.0 0.00 0.00 0.00 68 1062.9
20260902124853 71 180 5.2 0.0 0.00 0.00 0.00 68 1062.9
20260902124746 71 225 2.6 0.0 0.00 0.00 0.00 68 1063.0
20260902124634 71 247 2.6 0.0 0.00 0.00 0.00 68 1062.9
20260902124529 71 270 3.5 0.0 0.00 0.00 0.00 67 1063.0
20260902124408 71 270 0.0 0.0 0.00 0.00 0.00 67 1062.9
20260902124304 71 270 4.3 0.0 0.00 0.00 0.00 67 1063.0
20260902124157 71 247 5.2 0.0 0.00 0.00 0.00 67 1063.0
20260902124044 71 225 5.2 0.0 0.00 0.00 0.00 67 1063.0
20260902123934 71 247 4.3 0.0 0.00 0.00 0.00 67 1063.0
20260902123827 71 225 5.2 0.0 0.00 0.00 0.00 67 1063.0
20260902123659 71 225 2.6 0.0 0.00 0.00 0.00 67 1062.9
20260902123546 71 270 1.7 0.0 0.00 0.00 0.00 66 1062.9
20260902123425 71 270 8.7 0.0 0.00 0.00 0.00 66 1063.0
20260902123305 71 247 0.0 0.0 0.00 0.00 0.00 67 1062.9
20260902123201 71 270 0.0 0.0 0.00 0.00 0.00 67 1063.0
20260902123055 71 225 2.6 0.0 0.00 0.00 0.00 67 1062.9
20260902122942 71 247 2.6 0.0 0.00 0.00 0.00 68 1063.0
20260902122829 71 225 2.6 0.0 0.00 0.00 0.00 68 1063.0
20260902122715 70 180 5.2 0.0 0.00 0.00 0.00 68 1062.9
20260902122603 70 157 3.5 0.0 0.00 0.00 0.00 69 1063.0
20260902122452 70 202 2.6 0.0 0.00 0.00 0.00 69 1062.9
20260902122344 70 225 3.5 0.0 0.00 0.00 0.00 70 1062.9
20260902122232 69 247 4.3 0.0 0.00 0.00 0.00 71 1063.0
20260902122127 69 247 5.2 0.0 0.00 0.00 0.00 71 1063.0
20260902122014 69 247 0.0 0.0 0.00 0.00 0.00 71 1063.0
20260902121911 69 247 0.0 0.0 0.00 0.00 0.00 71 1063.0
20260902121805 69 270 3.5 0.0 0.00 0.00 0.00 72 1063.0
20260902121658 69 225 0.0 0.0 0.00 0.00 0.00 71 1063.0
20260902121553 69 202 1.7 0.0 0.00 0.00 0.00 71 1063.0
20260902121440 69 202 1.7 0.0 0.00 0.00 0.00 71 1063.0
20260902121335 69 202 2.6 0.0 0.00 0.00 0.00 71 1063.0
20260902121222 69 180 2.6 0.0 0.00 0.00 0.00 71 1063.0
20260902121108 69 202 3.5 0.0 0.00 0.00 0.00 71 1063.0
20260902120947 69 225 3.5 0.0 0.00 0.00 0.00 71 1063.0
20260902120827 69 225 3.5 0.0 0.00 0.00 0.00 72 1063.0
20260902120720 69 225 2.6 0.0 0.00 0.00 0.00 72 1062.9
20260902120606 69 202 0.0 0.0 0.00 0.00 0.00 72 1063.0
20260902120455 69 225 1.7 0.0 0.00 0.00 0.00 73 1062.9
20260902120347 68 225 3.5 0.0 0.00 0.00 0.00 73 1063.0
20260902120233 68 180 0.0 0.0 0.00 0.00 0.00 73 1062.9
20260902120119 68 180 1.7 0.0 0.00 0.00 0.00 73 1063.0
20260902120013 67 247 0.9 0.0 0.00 0.00 0.00 73 1063.0
20260902115859 67 270 3.5 0.0 0.00 0.00 0.00 73 1063.0
20260902115747 67 247 1.7 0.0 0.00 0.00 0.00 73 1063.0
20260902115632 67 270 2.6 0.0 0.00 0.00 0.00 73 1062.9
20260902115520 67 225 3.5 0.0 0.00 0.00 0.00 73 1062.9
20260902115406 67 270 0.9 0.0 0.00 0.00 0.00 73 1062.9
20260902115246 66 247 3.5 0.0 0.00 0.00 0.00 73 1062.9
20260902115141 66 225 2.6 0.0 0.00 0.00 0.00 73 1062.9
20260902115032 66 157 6.1 0.0 0.00 0.00 0.00 72 1063.0
20260902114918 67 247 0.0 0.0 0.00 0.00 0.00 72 1063.1
20260902114812 67 247 8.7 0.0 0.00 0.00 0.00 71 1063.1
20260902114702 67 270 1.7 0.0 0.00 0.00 0.00 71 1063.1
20260902114553 67 247 4.3 0.0 0.00 0.00 0.00 70 1063.1
20260902114441 67 270 2.6 0.0 0.00 0.00 0.00 70 1063.1
20260902114327 67 180 5.2 0.0 0.00 0.00 0.00 70 1063.1
20260902114214 68 270 5.2 0.0 0.00 0.00 0.00 70 1063.1
20260902114045 68 247 12.2 0.0 0.00 0.00 0.00 70 1063.1
20260902113932 68 270 7.0 0.0 0.00 0.00 0.00 69 1063.1
20260902113811 69 270 7.8 0.0 0.00 0.00 0.00 68 1063.1
20260902113649 69 270 11.3 0.0 0.00 0.00 0.00 67 1063.2
20260902113528 70 247 4.3 0.0 0.00 0.00 0.00 66 1063.1
20260902113407 70 292 12.2 0.0 0.00 0.00 0.00 67 1063.1
20260902113254 70 247 4.3 0.0 0.00 0.00 0.00 66 1063.1
20260902113137 71 270 12.2 0.0 0.00 0.00 0.00 66 1063.1
20260902113029 71 270 8.7 0.0 0.00 0.00 0.00 65 1063.2
20260902112913 71 270 1.7 0.0 0.00 0.00 0.00 64 1063.2
20260902112803 72 292 9.6 0.0 0.00 0.00 0.00 64 1063.2
20260902112655 72 315 5.2 0.0 0.00 0.00 0.00 63 1063.2
20260902112534 73 270 7.0 0.0 0.00 0.00 0.00 63 1063.2
20260902112421 73 270 6.1 0.0 0.00 0.00 0.00 63 1063.2
20260902112300 74 270 13.9 0.0 0.00 0.00 0.00 67 1063.2
20260902112140 74 292 7.8 0.0 0.00 0.00 0.00 67 1063.1
20260902112025 74 247 6.1 0.0 0.00 0.00 0.00 67 1063.2
20260902111856 74 270 6.1 0.0 0.00 0.00 0.00 67 1063.1
20260902111743 74 292 8.7 0.0 0.00 0.00 0.00 67 1063.1
20260902111614 73 270 2.6 0.0 0.00 0.00 0.00 67 1063.1
20260902111502 73 292 4.3 0.0 0.00 0.00 0.00 68 1063.2
20260902111350 73 247 0.0 0.0 0.00 0.00 0.00 68 1063.2
20260902111243 73 247 5.2 0.0 0.00 0.00 0.00 68 1063.1
20260902111122 73 247 7.0 0.0 0.00 0.00 0.00 69 1063.2
20260902111001 73 270 0.0 0.0 0.00 0.00 0.00 70 1063.2
20260902110848 73 270 3.5 0.0 0.00 0.00 0.00 69 1063.2
20260902110735 73 292 5.2 0.0 0.00 0.00 0.00 69 1063.2
20260902110630 73 270 3.5 0.0 0.00 0.00 0.00 69 1063.1
20260902110510 73 270 4.3 0.0 0.00 0.00 0.00 69 1063.2
20260902110406 73 270 0.0 0.0 0.00 0.00 0.00 68 1063.2
20260902110259 73 225 4.3 0.0 0.00 0.00 0.00 68 1063.2
20260902110153 73 315 7.0 0.0 0.00 0.00 0.00 68 1063.2
20260902110032 73 270 5.2 0.0 0.00 0.00 0.00 67 1063.1
20260902105910 74 270 9.6 0.0 0.00 0.00 0.00 67 1063.1
20260902105750 74 270 0.0 0.0 0.00 0.00 0.00 66 1063.1
20260902105638 74 270 3.5 0.0 0.00 0.00 0.00 66 1063.1
20260902105534 74 225 6.1 0.0 0.00 0.00 0.00 66 1063.1
20260902105426 74 292 10.4 0.0 0.00 0.00 0.00 65 1063.1
20260902105314 74 202 8.7 0.0 0.00 0.00 0.00 66 1063.1
20260902105200 74 247 3.5 0.0 0.00 0.00 0.00 66 1063.1
20260902105041 74 292 2.6 0.0 0.00 0.00 0.00 66 1063.1
20260902104933 74 292 0.0 0.0 0.00 0.00 0.00 66 1063.0
20260902104814 74 0 5.2 0.0 0.00 0.00 0.00 67 1063.1
20260902104708 73 292 0.0 0.0 0.00 0.00 0.00 66 1063.1
20260902104547 73 270 0.0 0.0 0.00 0.00 0.00 66 1063.1
20260902104426 73 270 3.5 0.0 0.00 0.00 0.00 66 1063.1
20260902104313 73 337 3.5 0.0 0.00 0.00 0.00 67 1063.1
20260902104151 73 225 3.5 0.0 0.00 0.00 0.00 67 1063.1
20260902104041 73 247 5.2 0.0 0.00 0.00 0.00 67 1063.1
20260902103914 73 202 4.3 0.0 0.00 0.00 0.00 67 1063.2
20260902103806 73 247 5.2 0.0 0.00 0.00 0.00 66 1063.2
20260902103645 73 270 6.1 0.0 0.00 0.00 0.00 67 1063.2
20260902103534 73 315 2.6 0.0 0.00 0.00 0.00 67 1063.1
20260902103418 73 247 5.2 0.0 0.00 0.00 0.00 67 1063.2
20260902103252 73 270 2.6 0.0 0.00 0.00 0.00 68 1063.2
20260902103133 73 292 7.8 0.0 0.00 0.00 0.00 68 1063.2
20260902103025 73 270 5.2 0.0 0.00 0.00 0.00 67 1063.2
20260902102905 72 292 4.3 0.0 0.00 0.00 0.00 67 1063.2
20260902102755 72 270 4.3 0.0 0.00 0.00 0.00 67 1063.1
20260902102648 72 270 6.1 0.0 0.00 0.00 0.00 67 1063.1
20260902102541 72 270 7.0 0.0 0.00 0.00 0.00 68 1063.2
20260902102422 72 247 8.7 0.0 0.00 0.00 0.00 69 1063.2
20260902102317 72 270 0.0 0.0 0.00 0.00 0.00 69 1063.2
20260902102212 72 270 0.0 0.0 0.00 0.00 0.00 69 1063.1
20260902102107 72 292 4.3 0.0 0.00 0.00 0.00 69 1063.1
20260902102002 72 247 0.0 0.0 0.00 0.00 0.00 69 1063.2
20260902101857 72 270 0.0 0.0 0.00 0.00 0.00 68 1063.1
20260902101751 72 247 3.5 0.0 0.00 0.00 0.00 68 1063.1
20260902101632 72 292 4.3 0.0 0.00 0.00 0.00 68 1063.1
20260902101527 72 247 0.0 0.0 0.00 0.00 0.00 67 1063.1
20260902101423 72 292 4.3 0.0 0.00 0.00 0.00 67 1063.1
20260902101318 73 247 2.6 0.0 0.00 0.00 0.00 67 1063.1
20260902101212 73 225 8.7 0.0 0.00 0.00 0.00 67 1063.0
20260902101107 73 247 5.2 0.0 0.00 0.00 0.00 67 1063.1
20260902100932 73 247 2.6 0.0 0.00 0.00 0.00 66 1063.0
20260902100827 74 292 6.1 0.0 0.00 0.00 0.00 65 1063.0
20260902100719 74 225 6.1 0.0 0.00 0.00 0.00 65 1063.0
20260902100559 74 157 7.8 0.0 0.00 0.00 0.00 65 1063.0
20260902100456 74 270 0.0 0.0 0.00 0.00 0.00 65 1063.0
20260902100348 75 247 1.7 0.0 0.00 0.00 0.00 65 1063.0
20260902100219 75 270 0.0 0.0 0.00 0.00 0.00 64 1063.0
20260902100107 75 292 5.2 0.0 0.00 0.00 0.00 64 1063.0
20260902095955 75 202 0.0 0.0 0.00 0.02 0.00 64 1063.0
20260902095848 75 247 5.2 0.0 0.00 0.02 0.00 63 1063.0
20260902095726 75 180 5.2 0.0 0.00 0.02 0.00 63 1063.0
20260902095613 76 225 5.2 0.0 0.00 0.02 0.00 62 1063.0
20260902095503 76 225 11.3 0.0 0.00 0.02 0.00 62 1063.0
20260902095355 77 225 5.2 0.0 0.00 0.02 0.00 62 1062.9
20260902095234 77 247 9.6 0.0 0.00 0.02 0.00 61 1063.0
20260902095123 77 292 5.2 0.0 0.00 0.02 0.00 60 1063.0
20260902095016 78 247 3.5 0.0 0.00 0.02 0.00 59 1062.9
20260902094855 78 270 3.5 0.0 0.00 0.02 0.00 58 1063.0
20260902094742 79 247 3.5 0.0 0.00 0.02 0.00 57 1062.9
20260902094629 79 225 3.5 0.0 0.00 0.02 0.00 57 1062.9
20260902094524 80 292 6.1 0.0 0.00 0.02 0.00 56 1062.9
20260902094412 80 225 0.0 0.0 0.00 0.02 0.00 56 1062.9
20260902094306 80 247 5.2 0.0 0.00 0.02 0.00 56 1062.9
20260902094154 81 292 5.2 0.0 0.00 0.02 0.00 55 1062.9
20260902094049 81 247 3.5 0.0 0.00 0.02 0.00 56 1062.9
20260902093942 80 247 0.0 0.0 0.00 0.02 0.00 57 1062.9
20260902093820 80 247 3.5 0.0 0.00 0.02 0.00 57 1062.8
20260902093652 80 225 2.6 0.0 0.00 0.02 0.00 56 1062.8
20260902093530 80 247 5.2 0.0 0.00 0.02 0.00 56 1062.9
20260902093409 81 157 4.3 0.0 0.00 0.02 0.00 56 1062.9
20260902093257 80 247 6.1 0.0 0.00 0.02 0.00 56 1062.9
20260902093152 80 270 6.1 0.0 0.00 0.02 0.00 56 1062.9
20260902093030 80 225 0.0 0.0 0.00 0.02 0.00 56 1062.9
20260902092917 80 247 4.3 0.0 0.00 0.02 0.00 57 1062.9
20260902092755 80 270 6.1 0.0 0.00 0.02 0.00 57 1062.8
20260902092635 80 180 7.8 0.0 0.00 0.02 0.00 58 1062.9
20260902092522 80 225 2.6 0.0 0.00 0.02 0.00 59 1062.9
20260902092415 79 270 0.0 0.0 0.00 0.02 0.00 59 1062.9
20260902092305 79 270 3.5 0.0 0.00 0.02 0.00 59 1062.9
20260902092150 79 270 5.2 0.0 0.00 0.02 0.00 58 1062.9
20260902092039 79 225 4.3 0.0 0.00 0.02 0.00 58 1062.9
20260902091934 79 225 5.2 0.0 0.00 0.02 0.00 59 1062.9
20260902091819 79 225 5.2 0.0 0.00 0.02 0.00 59 1062.9
20260902091705 79 202 5.2 0.0 0.00 0.02 0.00 59 1062.9
20260902091545 79 247 3.5 0.0 0.00 0.02 0.00 59 1062.9
20260902091442 79 202 5.2 0.0 0.00 0.02 0.00 59 1062.9
20260902091334 79 270 5.2 0.0 0.00 0.02 0.00 61 1062.9
20260902091224 78 247 0.0 0.0 0.00 0.02 0.00 61 1062.9
20260902091117 78 180 3.5 0.0 0.00 0.02 0.00 60 1062.9
20260902091003 78 225 5.2 0.0 0.00 0.02 0.00 61 1062.9
20260902090843 78 247 5.2 0.0 0.00 0.02 0.00 61 1062.9
20260902090729 77 225 6.1 0.0 0.00 0.02 0.00 61 1062.9
20260902090602 78 225 4.3 0.0 0.00 0.02 0.00 61 1062.9
20260902090448 78 180 6.1 0.0 0.00 0.02 0.00 61 1062.8
20260902090342 78 202 3.5 0.0 0.00 0.02 0.00 60 1062.9
20260902090231 78 157 9.6 0.0 0.00 0.02 0.00 59 1062.9
20260902090117 78 225 5.2 0.0 0.00 0.02 0.00 60 1062.9
20260902090012 78 202 1.7 0.0 0.00 0.02 0.00 60 1062.9
20260902085859 78 292 4.3 0.0 0.00 0.08 0.00 59 1062.9
20260902085746 79 157 4.3 0.0 0.00 0.08 0.00 59 1062.9
20260902085641 79 247 2.6 0.0 0.00 0.08 0.00 59 1062.9
20260902085536 79 202 8.7 0.0 0.00 0.08 0.00 59 1062.9
20260902085431 79 270 6.1 0.0 0.00 0.08 0.00 59 1063.0
20260902085325 79 247 0.0 0.0 0.00 0.08 0.00 59 1062.9
20260902085220 79 247 5.2 0.0 0.00 0.08 0.00 59 1062.9
20260902085109 79 157 0.0 0.0 0.00 0.08 0.00 59 1062.9
20260902085001 78 292 0.0 0.0 0.00 0.08 0.00 59 1062.9
20260902084849 78 247 0.0 0.0 0.00 0.08 0.00 59 1062.9
20260902084735 78 225 0.0 0.0 0.00 0.08 0.00 59 1063.0
20260902084623 78 180 6.1 0.0 0.00 0.08 0.00 59 1062.9
20260902084510 78 180 4.3 0.0 0.00 0.08 0.00 58 1062.9
20260902084347 79 225 8.7 0.0 0.00 0.08 0.00 59 1062.9
20260902084235 78 270 0.0 0.0 0.00 0.08 0.00 59 1062.8
20260902084131 78 247 5.2 0.0 0.00 0.08 0.00 59 1062.8
20260902084017 78 247 5.2 0.0 0.00 0.08 0.00 59 1062.9
20260902083854 78 247 0.0 0.0 0.00 0.08 0.00 60 1062.9
20260902083742 78 270 3.5 0.0 0.00 0.08 0.00 60 1062.8
20260902083621 78 225 4.3 0.0 0.00 0.08 0.00 60 1062.8
20260902083508 78 225 1.7 0.0 0.00 0.08 0.00 60 1062.8
20260902083346 78 202 5.2 0.0 0.00 0.08 0.00 60 1062.8
20260902083236 78 292 4.3 0.0 0.00 0.08 0.00 60 1062.7
20260902083129 78 157 4.3 0.0 0.00 0.08 0.00 60 1062.8
20260902083000 78 270 4.3 0.0 0.00 0.08 0.00 60 1062.8
20260902082850 78 202 9.6 0.0 0.00 0.08 0.00 60 1062.7
20260902082744 77 180 3.5 0.0 0.00 0.08 0.00 60 1062.7
20260902082638 77 157 4.3 0.0 0.00 0.08 0.00 60 1062.6
20260902082526 77 180 4.3 0.0 0.00 0.08 0.00 61 1062.6
20260902082413 77 180 6.1 0.0 0.00 0.08 0.00 62 1062.6
20260902082254 76 292 4.3 0.0 0.00 0.08 0.00 62 1062.6
20260902082134 76 225 0.0 0.0 0.00 0.08 0.00 62 1062.6
20260902082017 76 202 0.0 0.0 0.00 0.08 0.00 62 1062.5
20260902081904 76 202 3.5 0.0 0.00 0.08 0.00 62 1062.6
20260902081751 75 270 1.7 0.0 0.00 0.08 0.00 63 1062.5
20260902081638 75 157 4.3 0.0 0.00 0.08 0.00 62 1062.5
20260902081532 75 270 2.6 0.0 0.00 0.08 0.00 62 1062.5
20260902081411 75 225 4.3 0.0 0.00 0.08 0.00 62 1062.5
20260902081258 75 202 7.8 0.0 0.00 0.08 0.00 62 1062.5
20260902081146 75 202 7.0 0.0 0.00 0.08 0.00 62 1062.4
20260902081032 75 270 0.0 0.0 0.00 0.08 0.00 62 1062.4
20260902080919 75 202 5.2 0.0 0.00 0.08 0.00 62 1062.5
20260902080806 75 157 2.6 0.0 0.00 0.08 0.00 63 1062.5
20260902080652 75 180 4.3 0.0 0.00 0.08 0.00 62 1062.5
20260902080540 75 180 4.3 0.0 0.00 0.08 0.00 62 1062.5
20260902080418 75 180 3.5 0.0 0.00 0.08 0.00 63 1062.5
20260902080306 75 180 5.2 0.0 0.00 0.08 0.00 64 1062.5
20260902080201 75 180 4.3 0.0 0.00 0.08 0.00 65 1062.5
20260902080056 74 202 0.0 0.0 0.00 0.08 0.00 65 1062.5
20260902075950 74 225 2.6 0.0 0.00 0.08 0.00 64 1062.4
20260902075831 74 247 3.5 0.0 0.00 0.08 0.00 64 1062.5
20260902075715 74 225 3.5 0.0 0.00 0.08 0.00 65 1062.5
20260902075554 73 180 1.7 0.0 0.00 0.08 0.00 65 1062.5
20260902075433 73 202 0.0 0.0 0.00 0.08 0.00 66 1062.4
20260902075312 73 270 4.3 0.0 0.00 0.08 0.00 65 1062.5
20260902075150 72 202 4.3 0.0 0.00 0.08 0.00 66 1062.5
20260902075038 72 180 5.2 0.0 0.00 0.08 0.00 66 1062.4
20260902074933 72 247 5.2 0.0 0.00 0.08 0.00 66 1062.5
20260902074828 72 270 6.1 0.0 0.00 0.08 0.00 66 1062.5
20260902074717 72 202 5.2 0.0 0.00 0.08 0.00 66 1062.5
20260902074611 72 180 7.0 0.0 0.00 0.08 0.00 66 1062.5
20260902074504 72 247 3.5 0.0 0.00 0.08 0.00 66 1062.5
20260902074350 72 202 5.2 0.0 0.00 0.08 0.00 66 1062.6
20260902074229 72 247 3.5 0.0 0.00 0.08 0.00 66 1062.5
20260902074118 72 202 5.2 0.0 0.00 0.08 0.00 66 1062.5
20260902074004 72 202 6.1 0.0 0.00 0.08 0.00 66 1062.6
20260902073850 72 202 7.0 0.0 0.00 0.08 0.00 67 1062.5
20260902073729 72 202 0.0 0.0 0.00 0.08 0.00 67 1062.5
20260902073617 71 225 2.6 0.0 0.00 0.08 0.00 67 1062.5
20260902073512 72 225 2.6 0.0 0.00 0.08 0.00 67 1062.5
20260902073350 71 180 1.7 0.0 0.00 0.08 0.00 67 1062.5
20260902073214 71 225 1.7 0.0 0.00 0.08 0.00 68 1062.5
20260902073056 71 202 7.8 0.0 0.00 0.08 0.00 68 1062.5
20260902072950 71 202 5.2 0.0 0.00 0.08 0.00 67 1062.5
20260902072845 71 180 7.0 0.0 0.00 0.08 0.00 68 1062.4
20260902072739 71 247 2.6 0.0 0.00 0.08 0.00 69 1062.5
20260902072617 70 202 5.2 0.0 0.00 0.08 0.00 69 1062.4
20260902072459 70 202 0.0 0.0 0.00 0.08 0.00 70 1062.5
20260902072351 69 202 4.3 0.0 0.00 0.08 0.00 71 1062.4
20260902072222 69 180 3.5 0.0 0.00 0.08 0.00 72 1062.5
20260902072103 68 180 4.3 0.0 0.00 0.08 0.00 72 1062.5
20260902071955 68 180 1.7 0.0 0.00 0.08 0.00 73 1062.5
20260902071841 68 180 5.2 0.0 0.00 0.08 0.00 73 1062.5
20260902071727 68 202 6.1 0.0 0.00 0.08 0.00 72 1062.6
20260902071605 68 247 1.7 0.0 0.00 0.08 0.00 73 1062.5
20260902071452 67 180 0.0 0.0 0.00 0.08 0.00 74 1062.5
20260902071346 67 180 3.5 0.0 0.00 0.08 0.00 74 1062.6
20260902071225 67 270 4.3 0.0 0.00 0.08 0.00 74 1062.5
20260902071103 67 225 9.6 0.0 0.00 0.08 0.00 75 1062.5
20260902070934 66 180 2.6 0.0 0.00 0.08 0.00 77 1062.5
20260902070813 66 180 0.0 0.0 0.00 0.08 0.00 78 1062.5
20260902070655 65 180 0.0 0.0 0.00 0.08 0.00 78 1062.6
20260902070547 65 180 7.0 0.0 0.00 0.08 0.00 79 1062.6
20260902070433 64 202 8.7 0.0 0.00 0.08 0.00 79 1062.5
20260902070327 64 202 5.2 0.0 0.00 0.08 0.00 80 1062.5
20260902070213 64 202 6.1 0.0 0.00 0.08 0.00 80 1062.5
20260902065957 63 157 1.7 0.0 0.00 0.10 0.00 80 1062.5
20260902065842 63 225 3.5 0.0 0.00 0.10 0.00 80 1062.5
20260902065729 63 180 4.3 0.0 0.00 0.10 0.00 80 1062.6
20260902065615 63 202 0.9 0.0 0.00 0.10 0.00 80 1062.6
20260902065455 63 180 9.6 0.0 0.00 0.10 0.00 80 1062.6
20260902065342 63 180 0.0 0.0 0.00 0.10 0.00 80 1062.6
20260902065237 63 202 5.2 0.0 0.00 0.10 0.00 80 1062.6
20260902065132 63 202 0.0 0.0 0.00 0.10 0.00 80 1062.5
20260902065027 63 202 3.5 0.0 0.00 0.10 0.00 80 1062.5
20260902064907 63 202 4.3 0.0 0.00 0.10 0.00 79 1062.6
20260902064800 63 225 4.3 0.0 0.00 0.10 0.00 79 1062.5
20260902064647 64 225 3.5 0.0 0.00 0.10 0.00 79 1062.5
20260902064533 64 202 2.6 0.0 0.00 0.10 0.00 79 1062.6
20260902064426 64 202 0.0 0.0 0.00 0.10 0.00 79 1062.5
20260902064305 64 180 3.5 0.0 0.00 0.10 0.00 79 1062.5
20260902064151 64 157 3.5 0.0 0.00 0.10 0.00 79 1062.6
20260902064037 64 202 3.5 0.0 0.00 0.10 0.00 79 1062.5
20260902063932 64 202 4.3 0.0 0.00 0.10 0.00 80 1062.5
20260902063819 64 247 3.5 0.0 0.00 0.10 0.00 80 1062.6
20260902063712 64 202 5.2 0.0 0.00 0.10 0.00 80 1062.6